Time,TemperatureF,DewpointF,PressureIn,WindDirection,WindDirectionDegrees,WindSpeedMPH,WindSpeedGustMPH,Humidity,HourlyPrecipIn,Conditions,Clouds,dailyrainin,SoftwareType,DateUTC
2013-03-07 00:00:00,30.4,24.1,30.25,NNW,337,1.0,10.0,77,0.00,,,-99.99,WeatherLink 5.6,2013-03-07 06:00:00,
2013-03-07 00:04:00,30.4,24.1,30.25,WNW,296,0.0,1.0,77,0.00,,,0.00,Wunderground v.1.15,2013-03-07 06:04:00,
2013-03-07 00:06:00,30.4,24.1,30.25,WNW,296,0.0,1.0,77,0.00,,,0.00,Wunderground v.1.15,2013-03-07 06:06:00,
2013-03-07 00:08:00,30.4,24.1,30.25,WNW,296,0.0,1.0,77,0.00,,,0.00,Wunderground v.1.15,2013-03-07 06:08:00,
2013-03-07 00:10:00,30.4,24.1,30.25,WNW,296,0.0,0.0,77,0.00,,,0.00,Wunderground v.1.15,2013-03-07 06:10:00,
2013-03-07 00:11:00,30.4,24.1,30.25,WNW,296,0.0,0.0,77,0.00,,,0.00,Wunderground v.1.15,2013-03-07 06:11:00,
2013-03-07 00:16:00,30.4,24.1,30.25,WNW,296,2.0,2.0,77,0.00,,,0.00,Wunderground v.1.15,2013-03-07 06:16:00,
2013-03-07 00:17:00,30.4,24.1,30.25,WNW,296,0.0,2.0,77,0.00,,,0.00,Wunderground v.1.15,2013-03-07 06:17:00,
2013-03-07 00:20:00,30.4,24.1,30.25,WNW,296,0.0,0.0,77,0.00,,,0.00,Wunderground v.1.15,2013-03-07 06:20:00,
2013-03-07 00:22:00,30.4,24.1,30.26,WNW,296,0.0,0.0,77,0.00,,,0.00,Wunderground v.1.15,2013-03-07 06:22:00,
2013-03-07 00:23:00,30.4,24.1,30.26,WNW,296,0.0,0.0,77,0.00,,,0.00,Wunderground v.1.15,2013-03-07 06:23:00,
2013-03-07 00:25:00,30.4,24.1,30.26,WNW,296,0.0,0.0,77,0.00,,,0.00,Wunderground v.1.15,2013-03-07 06:25:00,
2013-03-07 00:26:00,30.4,24.1,30.26,WNW,296,0.0,0.0,77,0.00,,,0.00,Wunderground v.1.15,2013-03-07 06:26:00,
2013-03-07 00:29:00,30.4,24.1,30.26,WNW,296,0.0,0.0,77,0.00,,,0.00,Wunderground v.1.15,2013-03-07 06:29:00,
2013-03-07 00:32:00,30.4,24.1,30.26,WNW,296,0.0,2.0,77,0.00,,,0.00,Wunderground v.1.15,2013-03-07 06:32:00,
2013-03-07 00:34:00,30.4,24.1,30.26,WNW,296,0.0,2.0,77,0.00,,,0.00,Wunderground v.1.15,2013-03-07 06:34:00,
2013-03-07 00:37:00,30.4,23.7,30.26,WNW,296,0.0,2.0,76,0.00,,,0.00,Wunderground v.1.15,2013-03-07 06:37:00,
2013-03-07 00:38:00,30.4,24.1,30.26,WNW,296,0.0,2.0,77,0.00,,,0.00,Wunderground v.1.15,2013-03-07 06:38:00,
2013-03-07 00:40:00,30.4,24.1,30.26,WNW,296,0.0,0.0,77,0.00,,,0.00,Wunderground v.1.15,2013-03-07 06:40:00,
2013-03-07 00:42:00,30.4,24.1,30.26,WNW,296,0.0,0.0,77,0.00,,,0.00,Wunderground v.1.15,2013-03-07 06:42:00,
2013-03-07 00:43:00,30.3,24.0,30.26,WNW,296,0.0,0.0,77,0.00,,,0.00,Wunderground v.1.15,2013-03-07 06:43:00,
2013-03-07 00:46:00,30.3,23.6,30.26,WNW,296,0.0,0.0,76,0.00,,,0.00,Wunderground v.1.15,2013-03-07 06:46:00,
2013-03-07 00:48:00,30.3,23.6,30.26,WNW,296,0.0,0.0,76,0.00,,,0.00,Wunderground v.1.15,2013-03-07 06:48:00,
2013-03-07 00:51:00,30.3,24.0,30.26,WNW,296,0.0,0.0,77,0.00,,,0.00,Wunderground v.1.15,2013-03-07 06:51:00,
2013-03-07 00:52:00,30.4,24.1,30.26,WNW,296,0.0,0.0,77,0.00,,,0.00,Wunderground v.1.15,2013-03-07 06:52:00,
2013-03-07 00:53:00,30.4,24.1,30.26,WNW,296,0.0,0.0,77,0.00,,,0.00,Wunderground v.1.15,2013-03-07 06:53:00,
2013-03-07 00:54:00,30.4,24.1,30.26,WNW,296,0.0,0.0,77,0.00,,,0.00,Wunderground v.1.15,2013-03-07 06:54:00,
2013-03-07 00:57:00,30.4,24.1,30.26,WNW,296,0.0,0.0,77,0.00,,,0.00,Wunderground v.1.15,2013-03-07 06:57:00,
2013-03-07 01:00:00,30.4,24.1,30.26,WNW,292,0.0,5.0,77,0.00,,,-99.99,WeatherLink 5.6,2013-03-07 07:00:00,
2013-03-07 01:01:00,30.4,24.1,30.26,WNW,296,0.0,0.0,77,0.00,,,0.00,Wunderground v.1.15,2013-03-07 07:01:00,
2013-03-07 01:03:00,30.4,24.1,30.26,WNW,296,0.0,0.0,77,0.00,,,0.00,Wunderground v.1.15,2013-03-07 07:03:00,
2013-03-07 01:04:00,30.4,24.1,30.26,WNW,296,0.0,0.0,77,0.00,,,0.00,Wunderground v.1.15,2013-03-07 07:04:00,
2013-03-07 01:08:00,30.4,24.1,30.26,WNW,296,1.0,1.0,77,0.00,,,0.00,Wunderground v.1.15,2013-03-07 07:08:00,
2013-03-07 01:10:00,30.4,23.7,30.26,WNW,296,0.0,0.0,76,0.00,,,0.00,Wunderground v.1.15,2013-03-07 07:10:00,
2013-03-07 01:11:00,30.4,24.1,30.26,WNW,296,1.0,1.0,77,0.00,,,0.00,Wunderground v.1.15,2013-03-07 07:11:00,
2013-03-07 01:13:00,30.4,23.7,30.26,WNW,296,0.0,1.0,76,0.00,,,0.00,Wunderground v.1.15,2013-03-07 07:13:00,
2013-03-07 01:16:00,30.4,23.7,30.26,WNW,296,0.0,1.0,76,0.00,,,0.00,Wunderground v.1.15,2013-03-07 07:16:00,
2013-03-07 01:17:00,30.4,24.1,30.26,WNW,296,0.0,1.0,77,0.00,,,0.00,Wunderground v.1.15,2013-03-07 07:17:00,
2013-03-07 01:19:00,30.4,24.1,30.26,WNW,296,0.0,1.0,77,0.00,,,0.00,Wunderground v.1.15,2013-03-07 07:19:00,
2013-03-07 01:21:00,30.4,24.1,30.26,WNW,296,0.0,0.0,77,0.00,,,0.00,Wunderground v.1.15,2013-03-07 07:21:00,
2013-03-07 01:22:00,30.4,24.1,30.26,WNW,296,0.0,0.0,77,0.00,,,0.00,Wunderground v.1.15,2013-03-07 07:22:00,
2013-03-07 01:24:00,30.4,24.1,30.26,WNW,296,0.0,0.0,77,0.00,,,0.00,Wunderground v.1.15,2013-03-07 07:24:00,
2013-03-07 01:26:00,30.4,24.1,30.26,WNW,296,0.0,0.0,77,0.00,,,0.00,Wunderground v.1.15,2013-03-07 07:26:00,
2013-03-07 01:28:00,30.4,24.1,30.26,WNW,296,3.0,3.0,77,0.00,,,0.00,Wunderground v.1.15,2013-03-07 07:28:00,
2013-03-07 01:29:00,30.4,23.7,30.26,WNW,296,0.0,3.0,76,0.00,,,0.00,Wunderground v.1.15,2013-03-07 07:29:00,
2013-03-07 01:31:00,30.4,23.7,30.26,WNW,296,1.0,1.0,76,0.00,,,0.00,Wunderground v.1.15,2013-03-07 07:31:00,
2013-03-07 01:32:00,30.4,23.7,30.26,WNW,296,0.0,1.0,76,0.00,,,0.00,Wunderground v.1.15,2013-03-07 07:32:00,
2013-03-07 01:35:00,30.4,23.7,30.26,WNW,296,0.0,1.0,76,0.00,,,0.00,Wunderground v.1.15,2013-03-07 07:35:00,
2013-03-07 01:39:00,30.4,24.1,30.26,WNW,296,0.0,1.0,77,0.00,,,0.00,Wunderground v.1.15,2013-03-07 07:39:00,
2013-03-07 01:40:00,30.4,24.1,30.26,WNW,296,0.0,0.0,77,0.00,,,0.00,Wunderground v.1.15,2013-03-07 07:40:00,
2013-03-07 01:45:00,30.4,24.1,30.26,WNW,296,0.0,0.0,77,0.00,,,0.00,Wunderground v.1.15,2013-03-07 07:45:00,
2013-03-07 01:46:00,30.4,24.1,30.26,WNW,296,0.0,0.0,77,0.00,,,0.00,Wunderground v.1.15,2013-03-07 07:46:00,
2013-03-07 01:47:00,30.4,24.1,30.26,WNW,296,0.0,0.0,77,0.00,,,0.00,Wunderground v.1.15,2013-03-07 07:47:00,
2013-03-07 01:52:00,30.4,24.4,30.26,WNW,296,0.0,0.0,78,0.00,,,0.00,Wunderground v.1.15,2013-03-07 07:52:00,
2013-03-07 01:53:00,30.4,24.7,30.26,WNW,296,0.0,0.0,79,0.00,,,0.00,Wunderground v.1.15,2013-03-07 07:53:00,
2013-03-07 01:58:00,30.4,24.4,30.26,WNW,296,0.0,0.0,78,0.00,,,0.00,Wunderground v.1.15,2013-03-07 07:58:00,
2013-03-07 01:59:00,30.4,24.4,30.26,WNW,298,2.0,2.0,78,0.00,,,0.00,Wunderground v.1.15,2013-03-07 07:59:00,
2013-03-07 02:00:00,30.4,24.4,30.26,WNW,292,0.0,4.0,78,0.00,,,-99.99,WeatherLink 5.6,2013-03-07 08:00:00,
2013-03-07 02:01:00,30.4,24.4,30.26,WNW,298,2.0,2.0,78,0.00,,,0.00,Wunderground v.1.15,2013-03-07 08:01:00,
2013-03-07 02:04:00,30.4,24.4,30.26,WNW,298,0.0,2.0,78,0.00,,,0.00,Wunderground v.1.15,2013-03-07 08:04:00,
2013-03-07 02:05:00,30.4,24.4,30.26,WNW,298,0.0,2.0,78,0.00,,,0.00,Wunderground v.1.15,2013-03-07 08:05:00,
2013-03-07 02:06:00,30.4,24.4,30.26,WNW,298,0.0,2.0,78,0.00,,,0.00,Wunderground v.1.15,2013-03-07 08:06:00,
2013-03-07 02:09:00,30.4,24.4,30.26,WNW,298,0.0,2.0,78,0.00,,,0.00,Wunderground v.1.15,2013-03-07 08:09:00,
2013-03-07 02:10:00,30.4,24.4,30.26,WNW,298,0.0,0.0,78,0.00,,,0.00,Wunderground v.1.15,2013-03-07 08:10:00,
2013-03-07 02:13:00,30.4,24.4,30.26,WNW,298,0.0,0.0,78,0.00,,,0.00,Wunderground v.1.15,2013-03-07 08:13:00,
2013-03-07 02:14:00,30.4,24.4,30.26,WNW,298,0.0,0.0,78,0.00,,,0.00,Wunderground v.1.15,2013-03-07 08:14:00,
2013-03-07 02:15:00,30.4,24.4,30.26,WNW,298,0.0,0.0,78,0.00,,,0.00,Wunderground v.1.15,2013-03-07 08:15:00,
2013-03-07 02:18:00,30.4,24.4,30.26,WNW,298,1.0,4.0,78,0.00,,,0.00,Wunderground v.1.15,2013-03-07 08:18:00,
2013-03-07 02:19:00,30.4,24.4,30.26,NNW,348,1.0,6.0,78,0.00,,,0.00,Wunderground v.1.15,2013-03-07 08:19:00,
2013-03-07 02:21:00,30.4,24.1,30.26,North,355,0.0,2.0,77,0.00,,,0.00,Wunderground v.1.15,2013-03-07 08:21:00,
2013-03-07 02:23:00,30.6,24.6,30.26,North,355,0.0,2.0,78,0.00,,,0.00,Wunderground v.1.15,2013-03-07 08:23:00,
2013-03-07 02:24:00,30.6,24.6,30.26,North,355,0.0,2.0,78,0.00,,,0.00,Wunderground v.1.15,2013-03-07 08:24:00,
2013-03-07 02:26:00,30.6,24.6,30.26,North,355,2.0,3.0,78,0.00,,,0.00,Wunderground v.1.15,2013-03-07 08:26:00,
2013-03-07 02:28:00,30.6,24.6,30.26,North,355,0.0,5.0,78,0.00,,,0.00,Wunderground v.1.15,2013-03-07 08:28:00,
2013-03-07 02:29:00,30.6,24.6,30.26,North,355,0.0,5.0,78,0.00,,,0.00,Wunderground v.1.15,2013-03-07 08:29:00,
2013-03-07 02:31:00,30.6,24.6,30.26,North,350,4.0,5.0,78,0.00,,,0.00,Wunderground v.1.15,2013-03-07 08:31:00,
2013-03-07 02:34:00,30.6,24.2,30.26,NW,319,0.0,5.0,77,0.00,,,0.00,Wunderground v.1.15,2013-03-07 08:34:00,
2013-03-07 02:36:00,30.6,24.6,30.26,NW,320,0.0,5.0,78,0.00,,,0.00,Wunderground v.1.15,2013-03-07 08:36:00,
2013-03-07 02:39:00,30.6,24.2,30.26,NW,309,2.0,6.0,77,0.00,,,0.00,Wunderground v.1.15,2013-03-07 08:39:00,
2013-03-07 02:40:00,30.6,24.2,30.26,NW,309,0.0,6.0,77,0.00,,,0.00,Wunderground v.1.15,2013-03-07 08:40:00,
2013-03-07 02:41:00,30.6,24.2,30.26,NW,315,4.0,4.0,77,0.00,,,0.00,Wunderground v.1.15,2013-03-07 08:41:00,
2013-03-07 02:44:00,30.6,24.2,30.26,NW,315,0.0,4.0,77,0.00,,,0.00,Wunderground v.1.15,2013-03-07 08:44:00,
2013-03-07 02:45:00,30.6,24.2,30.26,NW,315,0.0,4.0,77,0.00,,,0.00,Wunderground v.1.15,2013-03-07 08:45:00,
2013-03-07 02:46:00,30.6,24.2,30.26,NW,315,0.0,4.0,77,0.00,,,0.00,Wunderground v.1.15,2013-03-07 08:46:00,
2013-03-07 02:49:00,30.6,24.2,30.26,NW,315,0.0,4.0,77,0.00,,,0.00,Wunderground v.1.15,2013-03-07 08:49:00,
2013-03-07 02:50:00,30.6,24.6,30.26,NW,315,0.0,4.0,78,0.00,,,0.00,Wunderground v.1.15,2013-03-07 08:50:00,
2013-03-07 02:51:00,30.6,24.6,30.26,NW,315,0.0,0.0,78,0.00,,,0.00,Wunderground v.1.15,2013-03-07 08:51:00,
2013-03-07 02:54:00,30.6,24.6,30.26,NW,315,0.0,0.0,78,0.00,,,0.00,Wunderground v.1.15,2013-03-07 08:54:00,
2013-03-07 02:55:00,30.6,24.2,30.26,NW,315,0.0,0.0,77,0.00,,,0.00,Wunderground v.1.15,2013-03-07 08:55:00,
2013-03-07 02:56:00,30.4,24.1,30.26,NW,315,0.0,4.0,77,0.00,,,0.00,Wunderground v.1.15,2013-03-07 08:56:00,
2013-03-07 02:59:00,30.6,24.2,30.26,NW,315,0.0,4.0,77,0.00,,,0.00,Wunderground v.1.15,2013-03-07 08:59:00,
2013-03-07 03:00:00,30.4,24.1,30.26,NW,315,1.0,6.0,77,0.00,,,-99.99,WeatherLink 5.6,2013-03-07 09:00:00,
2013-03-07 03:01:00,30.4,24.1,30.26,NW,315,4.0,4.0,77,0.00,,,0.00,Wunderground v.1.15,2013-03-07 09:01:00,
2013-03-07 03:04:00,30.4,24.1,30.26,NW,315,0.0,4.0,77,0.00,,,0.00,Wunderground v.1.15,2013-03-07 09:04:00,
2013-03-07 03:07:00,30.4,24.1,30.26,NW,315,1.0,4.0,77,0.00,,,0.00,Wunderground v.1.15,2013-03-07 09:07:00,
2013-03-07 03:09:00,30.6,24.2,30.26,NW,312,5.0,5.0,77,0.00,,,0.00,Wunderground v.1.15,2013-03-07 09:09:00,
2013-03-07 03:12:00,30.4,24.1,30.26,NW,312,0.0,1.0,77,0.00,,,0.00,Wunderground v.1.15,2013-03-07 09:12:00,
2013-03-07 03:14:00,30.6,24.2,30.26,NW,312,0.0,1.0,77,0.00,,,0.00,Wunderground v.1.15,2013-03-07 09:14:00,
2013-03-07 03:17:00,30.6,24.2,30.26,NW,312,0.0,1.0,77,0.00,,,0.00,Wunderground v.1.15,2013-03-07 09:17:00,
2013-03-07 03:20:00,30.6,24.2,30.26,NW,313,0.0,1.0,77,0.00,,,0.00,Wunderground v.1.15,2013-03-07 09:20:00,
2013-03-07 03:22:00,30.6,24.6,30.26,NW,313,0.0,0.0,78,0.00,,,0.00,Wunderground v.1.15,2013-03-07 09:22:00,
2013-03-07 03:23:00,30.6,24.6,30.26,NW,313,0.0,0.0,78,0.00,,,0.00,Wunderground v.1.15,2013-03-07 09:23:00,
2013-03-07 03:25:00,30.6,24.6,30.26,NW,313,0.0,0.0,78,0.00,,,0.00,Wunderground v.1.15,2013-03-07 09:25:00,
2013-03-07 03:27:00,30.6,24.6,30.26,NW,313,0.0,0.0,78,0.00,,,0.00,Wunderground v.1.15,2013-03-07 09:27:00,
2013-03-07 03:28:00,30.6,24.6,30.26,NW,313,0.0,0.0,78,0.00,,,0.00,Wunderground v.1.15,2013-03-07 09:28:00,
2013-03-07 03:30:00,30.6,24.6,30.26,NW,313,0.0,0.0,78,0.00,,,0.00,Wunderground v.1.15,2013-03-07 09:30:00,
2013-03-07 03:32:00,30.6,24.6,30.26,NW,313,0.0,0.0,78,0.00,,,0.00,Wunderground v.1.15,2013-03-07 09:32:00,
2013-03-07 03:34:00,30.6,24.2,30.26,NW,313,0.0,0.0,77,0.00,,,0.00,Wunderground v.1.15,2013-03-07 09:34:00,
2013-03-07 03:36:00,30.6,24.2,30.26,NW,313,0.0,0.0,77,0.00,,,0.00,Wunderground v.1.15,2013-03-07 09:36:00,
2013-03-07 03:38:00,30.6,24.6,30.26,NW,313,0.0,0.0,78,0.00,,,0.00,Wunderground v.1.15,2013-03-07 09:38:00,
2013-03-07 03:39:00,30.6,24.6,30.26,NW,313,0.0,0.0,78,0.00,,,0.00,Wunderground v.1.15,2013-03-07 09:39:00,
2013-03-07 03:42:00,30.6,24.6,30.26,NW,314,0.0,1.0,78,0.00,,,0.00,Wunderground v.1.15,2013-03-07 09:42:00,
2013-03-07 03:43:00,30.6,24.6,30.26,NW,314,0.0,1.0,78,0.00,,,0.00,Wunderground v.1.15,2013-03-07 09:43:00,
2013-03-07 03:45:00,30.6,24.6,30.26,NW,314,0.0,1.0,78,0.00,,,0.00,Wunderground v.1.15,2013-03-07 09:45:00,
2013-03-07 03:47:00,30.6,24.6,30.26,NW,314,0.0,1.0,78,0.00,,,0.00,Wunderground v.1.15,2013-03-07 09:47:00,
2013-03-07 03:48:00,30.6,24.6,30.26,NW,314,0.0,1.0,78,0.00,,,0.00,Wunderground v.1.15,2013-03-07 09:48:00,
2013-03-07 03:51:00,30.6,24.6,30.27,NW,314,0.0,0.0,78,0.00,,,0.00,Wunderground v.1.15,2013-03-07 09:51:00,
2013-03-07 03:52:00,30.6,24.6,30.27,NW,314,0.0,0.0,78,0.00,,,0.00,Wunderground v.1.15,2013-03-07 09:52:00,
2013-03-07 03:53:00,30.6,24.6,30.27,NW,314,0.0,0.0,78,0.00,,,0.00,Wunderground v.1.15,2013-03-07 09:53:00,
2013-03-07 03:57:00,30.6,24.6,30.27,NW,314,1.0,4.0,78,0.00,,,0.00,Wunderground v.1.15,2013-03-07 09:57:00,
2013-03-07 03:58:00,30.6,24.6,30.27,NW,314,0.0,4.0,78,0.00,,,0.00,Wunderground v.1.15,2013-03-07 09:58:00,
2013-03-07 04:00:00,30.6,24.6,30.27,NW,315,0.0,6.0,78,0.00,,,-99.99,WeatherLink 5.6,2013-03-07 10:00:00,
2013-03-07 04:02:00,30.6,24.2,30.27,NW,315,0.0,2.0,77,0.00,,,0.00,Wunderground v.1.15,2013-03-07 10:02:00,
2013-03-07 04:03:00,30.6,24.2,30.27,NW,315,0.0,2.0,77,0.00,,,0.00,Wunderground v.1.15,2013-03-07 10:03:00,
2013-03-07 04:08:00,30.6,24.6,30.27,NW,315,0.0,2.0,78,0.00,,,0.00,Wunderground v.1.15,2013-03-07 10:08:00,
2013-03-07 04:13:00,30.6,24.9,30.27,NW,315,0.0,2.0,79,0.00,,,0.00,Wunderground v.1.15,2013-03-07 10:13:00,
2013-03-07 04:14:00,30.6,24.9,30.27,NW,315,0.0,2.0,79,0.00,,,0.00,Wunderground v.1.15,2013-03-07 10:14:00,
2013-03-07 04:18:00,30.6,24.9,30.27,NW,315,0.0,2.0,79,0.00,,,0.00,Wunderground v.1.15,2013-03-07 10:18:00,
2013-03-07 04:19:00,30.6,24.9,30.27,NW,315,0.0,2.0,79,0.00,,,0.00,Wunderground v.1.15,2013-03-07 10:19:00,
2013-03-07 04:23:00,30.6,24.9,30.28,NW,315,0.0,0.0,79,0.00,,,0.00,Wunderground v.1.15,2013-03-07 10:23:00,
2013-03-07 04:24:00,30.6,24.9,30.28,NW,315,0.0,0.0,79,0.00,,,0.00,Wunderground v.1.15,2013-03-07 10:24:00,
2013-03-07 04:25:00,30.6,24.9,30.28,NW,315,0.0,0.0,79,0.00,,,0.00,Wunderground v.1.15,2013-03-07 10:25:00,
2013-03-07 04:29:00,30.6,24.9,30.28,NW,315,0.0,0.0,79,0.00,,,0.00,Wunderground v.1.15,2013-03-07 10:29:00,
2013-03-07 04:31:00,30.6,24.9,30.28,NW,315,0.0,0.0,79,0.00,,,0.00,Wunderground v.1.15,2013-03-07 10:31:00,
2013-03-07 04:34:00,30.4,24.4,30.28,NW,315,0.0,2.0,78,0.00,,,0.00,Wunderground v.1.15,2013-03-07 10:34:00,
2013-03-07 04:35:00,30.4,24.4,30.28,NW,315,0.0,2.0,78,0.00,,,0.00,Wunderground v.1.15,2013-03-07 10:35:00,
2013-03-07 04:36:00,30.4,24.4,30.28,NW,315,0.0,2.0,78,0.00,,,0.00,Wunderground v.1.15,2013-03-07 10:36:00,
2013-03-07 04:39:00,30.4,24.7,30.28,NW,315,0.0,2.0,79,0.00,,,0.00,Wunderground v.1.15,2013-03-07 10:39:00,
2013-03-07 04:40:00,30.4,24.7,30.28,NW,315,0.0,2.0,79,0.00,,,0.00,Wunderground v.1.15,2013-03-07 10:40:00,
2013-03-07 04:42:00,30.6,24.9,30.28,NW,315,0.0,0.0,79,0.00,,,0.00,Wunderground v.1.15,2013-03-07 10:42:00,
2013-03-07 04:45:00,30.6,24.9,30.28,NW,315,0.0,0.0,79,0.00,,,0.00,Wunderground v.1.15,2013-03-07 10:45:00,
2013-03-07 04:48:00,30.6,24.9,30.28,NW,315,0.0,0.0,79,0.00,,,0.00,Wunderground v.1.15,2013-03-07 10:48:00,
2013-03-07 04:50:00,30.6,24.9,30.28,NW,315,0.0,0.0,79,0.00,,,0.00,Wunderground v.1.15,2013-03-07 10:50:00,
2013-03-07 04:51:00,30.6,24.9,30.28,NW,315,0.0,0.0,79,0.00,,,0.00,Wunderground v.1.15,2013-03-07 10:51:00,
2013-03-07 04:53:00,30.6,24.9,30.28,NW,315,0.0,0.0,79,0.00,,,0.00,Wunderground v.1.15,2013-03-07 10:53:00,
2013-03-07 04:55:00,30.6,24.9,30.28,NW,315,0.0,0.0,79,0.00,,,0.00,Wunderground v.1.15,2013-03-07 10:55:00,
2013-03-07 04:56:00,30.6,24.9,30.28,NW,315,0.0,0.0,79,0.00,,,0.00,Wunderground v.1.15,2013-03-07 10:56:00,
2013-03-07 04:58:00,30.6,24.9,30.28,NW,316,0.0,0.0,79,0.00,,,0.00,Wunderground v.1.15,2013-03-07 10:58:00,
2013-03-07 05:00:00,30.6,25.2,30.29,NW,315,0.0,2.0,80,0.00,,,-99.99,WeatherLink 5.6,2013-03-07 11:00:00,
2013-03-07 05:01:00,30.6,24.9,30.28,NW,315,0.0,0.0,79,0.00,,,0.00,Wunderground v.1.15,2013-03-07 11:01:00,
2013-03-07 05:03:00,30.6,24.9,30.28,NW,315,0.0,0.0,79,0.00,,,0.00,Wunderground v.1.15,2013-03-07 11:03:00,
2013-03-07 05:06:00,30.6,25.2,30.29,NW,315,0.0,0.0,80,0.00,,,0.00,Wunderground v.1.15,2013-03-07 11:06:00,
2013-03-07 05:09:00,30.6,25.2,30.29,NW,315,0.0,0.0,80,0.00,,,0.00,Wunderground v.1.15,2013-03-07 11:09:00,
2013-03-07 05:11:00,30.6,25.2,30.29,NW,315,0.0,0.0,80,0.00,,,0.00,Wunderground v.1.15,2013-03-07 11:11:00,
2013-03-07 05:14:00,30.6,25.2,30.29,NW,315,0.0,0.0,80,0.00,,,0.00,Wunderground v.1.15,2013-03-07 11:14:00,
2013-03-07 05:16:00,30.6,25.2,30.29,NW,315,0.0,0.0,80,0.00,,,0.00,Wunderground v.1.15,2013-03-07 11:16:00,
2013-03-07 05:17:00,30.6,25.2,30.29,NW,315,0.0,0.0,80,0.00,,,0.00,Wunderground v.1.15,2013-03-07 11:17:00,
2013-03-07 05:19:00,30.6,25.2,30.29,NW,315,0.0,0.0,80,0.00,,,0.00,Wunderground v.1.15,2013-03-07 11:19:00,
2013-03-07 05:22:00,30.6,25.2,30.29,NW,315,0.0,0.0,80,0.00,,,0.00,Wunderground v.1.15,2013-03-07 11:22:00,
2013-03-07 05:25:00,30.6,25.2,30.29,NW,315,0.0,0.0,80,0.00,,,0.00,Wunderground v.1.15,2013-03-07 11:25:00,
2013-03-07 05:27:00,30.4,25.0,30.29,NW,315,0.0,0.0,80,0.00,,,0.00,Wunderground v.1.15,2013-03-07 11:27:00,
2013-03-07 05:30:00,30.6,25.2,30.29,NW,315,0.0,0.0,80,0.00,,,0.00,Wunderground v.1.15,2013-03-07 11:30:00,
2013-03-07 05:32:00,30.6,25.2,30.29,NW,315,0.0,0.0,80,0.00,,,0.00,Wunderground v.1.15,2013-03-07 11:32:00,
2013-03-07 05:35:00,30.6,25.2,30.29,NW,315,0.0,0.0,80,0.00,,,0.00,Wunderground v.1.15,2013-03-07 11:35:00,
2013-03-07 05:37:00,30.6,25.2,30.29,NW,315,0.0,0.0,80,0.00,,,0.00,Wunderground v.1.15,2013-03-07 11:37:00,
2013-03-07 05:38:00,30.6,25.2,30.29,NW,315,0.0,0.0,80,0.00,,,0.00,Wunderground v.1.15,2013-03-07 11:38:00,
2013-03-07 05:40:00,30.6,25.2,30.29,NW,315,0.0,0.0,80,0.00,,,0.00,Wunderground v.1.15,2013-03-07 11:40:00,
2013-03-07 05:42:00,30.4,25.0,30.29,NW,315,1.0,2.0,80,0.00,,,0.00,Wunderground v.1.15,2013-03-07 11:42:00,
2013-03-07 05:43:00,30.4,25.0,30.29,NW,315,1.0,2.0,80,0.00,,,0.00,Wunderground v.1.15,2013-03-07 11:43:00,
2013-03-07 05:46:00,30.4,25.0,30.29,NW,315,0.0,2.0,80,0.00,,,0.00,Wunderground v.1.15,2013-03-07 11:46:00,
2013-03-07 05:48:00,30.4,25.0,30.29,NW,315,0.0,2.0,80,0.00,,,0.00,Wunderground v.1.15,2013-03-07 11:48:00,
2013-03-07 05:51:00,30.4,25.0,30.29,NW,315,0.0,0.0,80,0.00,,,0.00,Wunderground v.1.15,2013-03-07 11:51:00,
2013-03-07 05:53:00,30.4,25.0,30.29,NW,315,0.0,0.0,80,0.00,,,0.00,Wunderground v.1.15,2013-03-07 11:53:00,
2013-03-07 05:54:00,30.6,25.2,30.29,NW,315,0.0,0.0,80,0.00,,,0.00,Wunderground v.1.15,2013-03-07 11:54:00,
2013-03-07 05:56:00,30.6,25.2,30.29,NW,315,0.0,0.0,80,0.00,,,0.00,Wunderground v.1.15,2013-03-07 11:56:00,
2013-03-07 05:58:00,30.6,25.2,30.29,NW,315,0.0,0.0,80,0.00,,,0.00,Wunderground v.1.15,2013-03-07 11:58:00,
2013-03-07 05:59:00,30.6,25.2,30.29,NW,315,0.0,0.0,80,0.00,,,0.00,Wunderground v.1.15,2013-03-07 11:59:00,
2013-03-07 06:00:00,30.6,25.2,30.30,NW,315,0.0,2.0,80,0.00,,,-99.99,WeatherLink 5.6,2013-03-07 12:00:00,
2013-03-07 06:02:00,30.6,25.2,30.29,NW,315,0.0,0.0,80,0.00,,,0.00,Wunderground v.1.15,2013-03-07 12:02:00,
2013-03-07 06:03:00,30.6,25.2,30.29,NW,315,0.0,0.0,80,0.00,,,0.00,Wunderground v.1.15,2013-03-07 12:03:00,
2013-03-07 06:04:00,30.6,25.2,30.29,NW,315,0.0,0.0,80,0.00,,,0.00,Wunderground v.1.15,2013-03-07 12:04:00,
2013-03-07 06:07:00,30.6,25.2,30.30,NW,315,0.0,0.0,80,0.00,,,0.00,Wunderground v.1.15,2013-03-07 12:07:00,
2013-03-07 06:08:00,30.6,25.2,30.30,NW,315,0.0,0.0,80,0.00,,,0.00,Wunderground v.1.15,2013-03-07 12:08:00,
2013-03-07 06:10:00,30.6,25.2,30.30,NW,315,0.0,0.0,80,0.00,,,0.00,Wunderground v.1.15,2013-03-07 12:10:00,
2013-03-07 06:13:00,30.6,25.2,30.30,NW,315,0.0,0.0,80,0.00,,,0.00,Wunderground v.1.15,2013-03-07 12:13:00,
2013-03-07 06:15:00,30.6,25.2,30.30,NW,315,0.0,0.0,80,0.00,,,0.00,Wunderground v.1.15,2013-03-07 12:15:00,
2013-03-07 06:18:00,30.6,25.2,30.30,NW,315,0.0,0.0,80,0.00,,,0.00,Wunderground v.1.15,2013-03-07 12:18:00,
2013-03-07 06:19:00,30.6,25.2,30.30,NW,315,0.0,0.0,80,0.00,,,0.00,Wunderground v.1.15,2013-03-07 12:19:00,
2013-03-07 06:20:00,30.6,25.2,30.30,NW,315,0.0,0.0,80,0.00,,,0.00,Wunderground v.1.15,2013-03-07 12:20:00,
2013-03-07 06:23:00,30.4,25.0,30.31,NW,315,0.0,0.0,80,0.00,,,0.00,Wunderground v.1.15,2013-03-07 12:23:00,
2013-03-07 06:24:00,30.4,25.0,30.31,NW,315,0.0,0.0,80,0.00,,,0.00,Wunderground v.1.15,2013-03-07 12:24:00,
2013-03-07 06:25:00,30.4,25.0,30.31,NW,315,0.0,0.0,80,0.00,,,0.00,Wunderground v.1.15,2013-03-07 12:25:00,
2013-03-07 06:28:00,30.4,25.0,30.31,NW,315,0.0,0.0,80,0.00,,,0.00,Wunderground v.1.15,2013-03-07 12:28:00,
2013-03-07 06:29:00,30.4,25.0,30.31,NW,315,0.0,0.0,80,0.00,,,0.00,Wunderground v.1.15,2013-03-07 12:29:00,
2013-03-07 06:30:00,30.4,25.0,30.31,NW,315,0.0,0.0,80,0.00,,,0.00,Wunderground v.1.15,2013-03-07 12:30:00,
2013-03-07 06:33:00,30.4,25.0,30.31,NW,315,0.0,0.0,80,0.00,,,0.00,Wunderground v.1.15,2013-03-07 12:33:00,
2013-03-07 06:34:00,30.6,25.2,30.31,NW,316,0.0,0.0,80,0.00,,,0.00,Wunderground v.1.15,2013-03-07 12:34:00,
2013-03-07 06:35:00,30.6,25.2,30.31,NW,315,0.0,0.0,80,0.00,,,0.00,Wunderground v.1.15,2013-03-07 12:35:00,
2013-03-07 06:39:00,30.6,25.5,30.31,NW,315,0.0,0.0,81,0.00,,,0.00,Wunderground v.1.15,2013-03-07 12:39:00,
2013-03-07 06:40:00,30.6,25.5,30.31,NW,315,0.0,0.0,81,0.00,,,0.00,Wunderground v.1.15,2013-03-07 12:40:00,
2013-03-07 06:44:00,30.6,25.5,30.31,NW,315,0.0,0.0,81,0.00,,,0.00,Wunderground v.1.15,2013-03-07 12:44:00,
2013-03-07 06:45:00,30.6,25.5,30.31,NW,315,1.0,1.0,81,0.00,,,0.00,Wunderground v.1.15,2013-03-07 12:45:00,
2013-03-07 06:46:00,30.6,25.5,30.31,NW,315,0.0,1.0,81,0.00,,,0.00,Wunderground v.1.15,2013-03-07 12:46:00,
2013-03-07 06:49:00,30.6,25.5,30.31,NW,315,0.0,1.0,81,0.00,,,0.00,Wunderground v.1.15,2013-03-07 12:49:00,
2013-03-07 06:50:00,30.6,25.5,30.31,NW,315,0.0,1.0,81,0.00,,,0.00,Wunderground v.1.15,2013-03-07 12:50:00,
2013-03-07 06:51:00,30.6,25.5,30.31,NW,315,0.0,0.0,81,0.00,,,0.00,Wunderground v.1.15,2013-03-07 12:51:00,
2013-03-07 06:54:00,30.7,25.6,30.31,NW,315,0.0,0.0,81,0.00,,,0.00,Wunderground v.1.15,2013-03-07 12:54:00,
2013-03-07 06:55:00,30.7,25.6,30.31,NW,315,0.0,0.0,81,0.00,,,0.00,Wunderground v.1.15,2013-03-07 12:55:00,
2013-03-07 06:57:00,30.7,25.6,30.31,NW,315,0.0,0.0,81,0.00,,,0.00,Wunderground v.1.15,2013-03-07 12:57:00,
2013-03-07 07:00:00,30.7,25.6,30.31,NW,315,0.0,0.0,81,0.00,,,0.00,Wunderground v.1.15,2013-03-07 13:00:00,
2013-03-07 07:02:00,30.7,25.6,30.31,NW,315,0.0,0.0,81,0.00,,,0.00,Wunderground v.1.15,2013-03-07 13:02:00,
2013-03-07 07:05:00,30.7,25.3,30.31,NW,315,0.0,0.0,80,0.00,,,0.00,Wunderground v.1.15,2013-03-07 13:05:00,
2013-03-07 07:07:00,30.9,25.5,30.31,NW,315,0.0,0.0,80,0.00,,,0.00,Wunderground v.1.15,2013-03-07 13:07:00,
2013-03-07 07:10:00,30.9,25.5,30.31,NW,315,0.0,0.0,80,0.00,,,0.00,Wunderground v.1.15,2013-03-07 13:10:00,
2013-03-07 07:11:00,30.9,25.5,30.31,NW,315,0.0,0.0,80,0.00,,,0.00,Wunderground v.1.15,2013-03-07 13:11:00,
2013-03-07 07:12:00,30.9,25.5,30.31,NW,316,0.0,0.0,80,0.00,,,0.00,Wunderground v.1.15,2013-03-07 13:12:00,
2013-03-07 07:15:00,31.0,25.2,30.31,NW,315,0.0,0.0,79,0.00,,,0.00,Wunderground v.1.15,2013-03-07 13:15:00,
2013-03-07 07:16:00,31.0,25.2,30.31,NW,315,0.0,0.0,79,0.00,,,0.00,Wunderground v.1.15,2013-03-07 13:16:00,
2013-03-07 07:17:00,31.0,25.2,30.31,NW,315,0.0,0.0,79,0.00,,,0.00,Wunderground v.1.15,2013-03-07 13:17:00,
2013-03-07 07:20:00,31.0,25.2,30.31,NW,315,0.0,0.0,79,0.00,,,0.00,Wunderground v.1.15,2013-03-07 13:20:00,
2013-03-07 07:21:00,31.0,25.2,30.31,NW,315,0.0,0.0,79,0.00,,,0.00,Wunderground v.1.15,2013-03-07 13:21:00,
2013-03-07 07:22:00,31.0,25.2,30.31,NW,315,0.0,0.0,79,0.00,,,0.00,Wunderground v.1.15,2013-03-07 13:22:00,
2013-03-07 07:26:00,31.2,25.4,30.31,NW,315,0.0,0.0,79,0.00,,,0.00,Wunderground v.1.15,2013-03-07 13:26:00,
2013-03-07 07:27:00,31.2,25.4,30.31,NW,315,0.0,0.0,79,0.00,,,0.00,Wunderground v.1.15,2013-03-07 13:27:00,
2013-03-07 07:31:00,31.2,25.4,30.31,NW,315,0.0,0.0,79,0.00,,,0.00,Wunderground v.1.15,2013-03-07 13:31:00,
2013-03-07 07:32:00,31.2,25.4,30.31,NW,315,0.0,0.0,79,0.00,,,0.00,Wunderground v.1.15,2013-03-07 13:32:00,
2013-03-07 07:33:00,31.2,25.4,30.31,NW,315,0.0,0.0,79,0.00,,,0.00,Wunderground v.1.15,2013-03-07 13:33:00,
2013-03-07 07:37:00,31.3,25.2,30.33,NW,315,1.0,2.0,78,0.00,,,0.00,Wunderground v.1.15,2013-03-07 13:37:00,
2013-03-07 07:38:00,31.3,25.2,30.33,NW,315,0.0,2.0,78,0.00,,,0.00,Wunderground v.1.15,2013-03-07 13:38:00,
2013-03-07 07:42:00,31.5,25.4,30.33,NW,315,0.0,0.0,78,0.00,,,0.00,Wunderground v.1.15,2013-03-07 13:42:00,
2013-03-07 07:43:00,31.5,25.4,30.33,NW,315,0.0,0.0,78,0.00,,,0.00,Wunderground v.1.15,2013-03-07 13:43:00,
2013-03-07 07:47:00,31.6,25.5,30.33,NW,315,0.0,4.0,78,0.00,,,0.00,Wunderground v.1.15,2013-03-07 13:47:00,
2013-03-07 07:48:00,31.6,25.5,30.33,NW,315,0.0,4.0,78,0.00,,,0.00,Wunderground v.1.15,2013-03-07 13:48:00,
2013-03-07 07:52:00,31.6,25.5,30.32,NW,315,0.0,0.0,78,0.00,,,0.00,Wunderground v.1.15,2013-03-07 13:52:00,
2013-03-07 07:53:00,31.8,25.7,30.32,NW,315,0.0,0.0,78,0.00,,,0.00,Wunderground v.1.15,2013-03-07 13:53:00,
2013-03-07 07:57:00,31.8,25.4,30.32,NW,315,0.0,0.0,77,0.00,,,0.00,Wunderground v.1.15,2013-03-07 13:57:00,
2013-03-07 07:58:00,31.8,25.7,30.32,NW,315,0.0,0.0,78,0.00,,,0.00,Wunderground v.1.15,2013-03-07 13:58:00,
2013-03-07 08:00:00,32.1,26.0,30.32,NW,315,0.0,4.0,78,0.00,,,-99.99,WeatherLink 5.6,2013-03-07 14:00:00,
2013-03-07 08:02:00,31.9,25.8,30.32,NW,315,0.0,0.0,78,0.00,,,0.00,Wunderground v.1.15,2013-03-07 14:02:00,
2013-03-07 08:04:00,31.9,25.5,30.32,NW,315,0.0,0.0,77,0.00,,,0.00,Wunderground v.1.15,2013-03-07 14:04:00,
2013-03-07 08:08:00,32.1,26.0,30.32,NW,315,0.0,0.0,78,0.00,,,0.00,Wunderground v.1.15,2013-03-07 14:08:00,
2013-03-07 08:09:00,32.1,25.7,30.32,NW,315,0.0,0.0,77,0.00,,,0.00,Wunderground v.1.15,2013-03-07 14:09:00,
2013-03-07 08:13:00,32.2,25.8,30.32,NW,315,0.0,0.0,77,0.00,,,0.00,Wunderground v.1.15,2013-03-07 14:13:00,
2013-03-07 08:14:00,32.2,25.8,30.32,NW,315,0.0,0.0,77,0.00,,,0.00,Wunderground v.1.15,2013-03-07 14:14:00,
2013-03-07 08:15:00,32.2,25.8,30.32,NW,315,0.0,0.0,77,0.00,,,0.00,Wunderground v.1.15,2013-03-07 14:15:00,
2013-03-07 08:19:00,32.4,25.7,30.32,NW,315,0.0,0.0,76,0.00,,,0.00,Wunderground v.1.15,2013-03-07 14:19:00,
2013-03-07 08:20:00,32.4,25.7,30.32,NW,315,0.0,0.0,76,0.00,,,0.00,Wunderground v.1.15,2013-03-07 14:20:00,
2013-03-07 08:24:00,32.4,26.0,30.31,NW,315,0.0,0.0,77,0.00,,,0.00,Wunderground v.1.15,2013-03-07 14:24:00,
2013-03-07 08:25:00,32.5,26.1,30.31,NW,315,0.0,2.0,77,0.00,,,0.00,Wunderground v.1.15,2013-03-07 14:25:00,
2013-03-07 08:29:00,32.5,26.1,30.31,NW,315,0.0,2.0,77,0.00,,,0.00,Wunderground v.1.15,2013-03-07 14:29:00,
2013-03-07 08:30:00,32.5,26.1,30.31,NW,315,0.0,2.0,77,0.00,,,0.00,Wunderground v.1.15,2013-03-07 14:30:00,
2013-03-07 08:34:00,32.7,26.3,30.31,NW,315,0.0,0.0,77,0.00,,,0.00,Wunderground v.1.15,2013-03-07 14:34:00,
2013-03-07 08:35:00,32.7,26.3,30.31,NW,315,0.0,0.0,77,0.00,,,0.00,Wunderground v.1.15,2013-03-07 14:35:00,
2013-03-07 08:39:00,32.8,26.1,30.32,NW,315,1.0,2.0,76,0.00,,,0.00,Wunderground v.1.15,2013-03-07 14:39:00,
2013-03-07 08:40:00,32.8,26.1,30.32,NW,315,0.0,2.0,76,0.00,,,0.00,Wunderground v.1.15,2013-03-07 14:40:00,
2013-03-07 08:41:00,32.8,25.7,30.32,NW,315,0.0,0.0,75,0.00,,,0.00,Wunderground v.1.15,2013-03-07 14:41:00,
2013-03-07 08:45:00,32.7,25.6,30.32,SSE,166,0.0,4.0,75,0.00,,,0.00,Wunderground v.1.15,2013-03-07 14:45:00,
2013-03-07 08:46:00,32.5,25.5,30.32,SSE,166,0.0,4.0,75,0.00,,,0.00,Wunderground v.1.15,2013-03-07 14:46:00,
2013-03-07 08:50:00,32.7,26.0,30.32,ESE,107,1.0,4.0,76,0.00,,,0.00,Wunderground v.1.15,2013-03-07 14:50:00,
2013-03-07 08:52:00,32.7,25.6,30.32,SE,142,6.0,6.0,75,0.00,,,0.00,Wunderground v.1.15,2013-03-07 14:52:00,
2013-03-07 08:55:00,32.5,25.5,30.32,ESE,120,0.0,6.0,75,0.00,,,0.00,Wunderground v.1.15,2013-03-07 14:55:00,
2013-03-07 08:57:00,32.5,25.5,30.32,ENE,61,0.0,6.0,75,0.00,,,0.00,Wunderground v.1.15,2013-03-07 14:57:00,
2013-03-07 09:00:00,32.7,25.6,30.32,NE,55,0.0,6.0,75,0.00,,,0.00,Wunderground v.1.15,2013-03-07 15:00:00,
2013-03-07 09:01:00,32.7,25.6,30.32,NE,55,0.0,1.0,75,0.00,,,0.00,Wunderground v.1.15,2013-03-07 15:01:00,
2013-03-07 09:02:00,32.7,25.6,30.32,NE,55,0.0,2.0,75,0.00,,,0.00,Wunderground v.1.15,2013-03-07 15:02:00,
2013-03-07 09:05:00,32.8,25.7,30.32,NE,55,0.0,2.0,75,0.00,,,0.00,Wunderground v.1.15,2013-03-07 15:05:00,
2013-03-07 09:07:00,33.1,26.0,30.32,NE,55,0.0,2.0,75,0.00,,,0.00,Wunderground v.1.15,2013-03-07 15:07:00,
2013-03-07 09:08:00,33.1,26.0,30.32,NE,53,0.0,2.0,75,0.00,,,0.00,Wunderground v.1.15,2013-03-07 15:08:00,
2013-03-07 09:10:00,33.1,26.0,30.32,ENE,69,0.0,6.0,75,0.00,,,0.00,Wunderground v.1.15,2013-03-07 15:10:00,
2013-03-07 09:12:00,33.2,26.1,30.32,NNE,21,0.0,0.0,75,0.00,,,0.00,Wunderground v.1.15,2013-03-07 15:12:00,
2013-03-07 09:13:00,33.2,26.1,30.32,NNE,21,0.0,0.0,75,0.00,,,0.00,Wunderground v.1.15,2013-03-07 15:13:00,
2013-03-07 09:15:00,33.2,25.8,30.32,NNE,22,0.0,0.0,74,0.00,,,0.00,Wunderground v.1.15,2013-03-07 15:15:00,
2013-03-07 09:17:00,33.2,25.8,30.32,NNE,19,0.0,0.0,74,0.00,,,0.00,Wunderground v.1.15,2013-03-07 15:17:00,
2013-03-07 09:18:00,33.2,25.8,30.32,NNE,19,0.0,0.0,74,0.00,,,0.00,Wunderground v.1.15,2013-03-07 15:18:00,
2013-03-07 09:20:00,33.2,25.8,30.32,NNE,19,0.0,0.0,74,0.00,,,0.00,Wunderground v.1.15,2013-03-07 15:20:00,
2013-03-07 09:22:00,33.2,26.1,30.33,NNE,19,0.0,0.0,75,0.00,,,0.00,Wunderground v.1.15,2013-03-07 15:22:00,
2013-03-07 09:24:00,33.2,25.8,30.33,NNE,19,0.0,0.0,74,0.00,,,0.00,Wunderground v.1.15,2013-03-07 15:24:00,
2013-03-07 09:26:00,33.4,26.3,30.33,NNE,19,0.0,0.0,75,0.00,,,0.00,Wunderground v.1.15,2013-03-07 15:26:00,
2013-03-07 09:28:00,33.5,26.1,30.33,NNE,19,0.0,0.0,74,0.00,,,0.00,Wunderground v.1.15,2013-03-07 15:28:00,
2013-03-07 09:29:00,33.5,26.1,30.33,NNE,19,0.0,0.0,74,0.00,,,0.00,Wunderground v.1.15,2013-03-07 15:29:00,
2013-03-07 09:32:00,33.7,26.0,30.33,NNE,19,0.0,0.0,73,0.00,,,0.00,Wunderground v.1.15,2013-03-07 15:32:00,
2013-03-07 09:33:00,33.7,26.3,30.33,NNE,19,0.0,0.0,74,0.00,,,0.00,Wunderground v.1.15,2013-03-07 15:33:00,
2013-03-07 09:34:00,33.8,26.1,30.33,NNE,19,0.0,0.0,73,0.00,,,0.00,Wunderground v.1.15,2013-03-07 15:34:00,
2013-03-07 09:37:00,33.8,26.1,30.34,NNE,19,0.0,0.0,73,0.00,,,0.00,Wunderground v.1.15,2013-03-07 15:37:00,
2013-03-07 09:38:00,33.8,25.7,30.34,NNE,19,0.0,0.0,72,0.00,,,0.00,Wunderground v.1.15,2013-03-07 15:38:00,
2013-03-07 09:39:00,33.8,25.7,30.34,NNE,19,0.0,0.0,72,0.00,,,0.00,Wunderground v.1.15,2013-03-07 15:39:00,
2013-03-07 09:43:00,33.8,25.7,30.34,NNE,19,0.0,0.0,72,0.00,,,0.00,Wunderground v.1.15,2013-03-07 15:43:00,
2013-03-07 09:44:00,33.8,26.1,30.34,NNE,17,4.0,4.0,73,0.00,,,0.00,Wunderground v.1.15,2013-03-07 15:44:00,
2013-03-07 09:48:00,33.8,25.7,30.34,NNE,17,0.0,4.0,72,0.00,,,0.00,Wunderground v.1.15,2013-03-07 15:48:00,
2013-03-07 09:49:00,33.8,26.1,30.34,NNE,17,0.0,4.0,73,0.00,,,0.00,Wunderground v.1.15,2013-03-07 15:49:00,
2013-03-07 09:50:00,33.8,26.1,30.34,NNE,17,0.0,4.0,73,0.00,,,0.00,Wunderground v.1.15,2013-03-07 15:50:00,
2013-03-07 09:53:00,33.7,26.0,30.34,NNE,17,0.0,0.0,73,0.00,,,0.00,Wunderground v.1.15,2013-03-07 15:53:00,
2013-03-07 09:54:00,33.7,26.0,30.34,NNE,17,0.0,0.0,73,0.00,,,0.00,Wunderground v.1.15,2013-03-07 15:54:00,
2013-03-07 09:55:00,33.7,26.0,30.34,NNE,16,0.0,0.0,73,0.00,,,0.00,Wunderground v.1.15,2013-03-07 15:55:00,
2013-03-07 09:58:00,33.7,25.6,30.34,North,9,0.0,4.0,72,0.00,,,0.00,Wunderground v.1.15,2013-03-07 15:58:00,
2013-03-07 10:00:00,33.7,25.6,30.34,North,9,0.0,4.0,72,0.00,,,0.00,Wunderground v.1.15,2013-03-07 16:00:00,
2013-03-07 10:04:00,33.5,25.4,30.34,North,5,0.0,2.0,72,0.00,,,0.00,Wunderground v.1.15,2013-03-07 16:04:00,
2013-03-07 10:05:00,33.5,25.4,30.34,North,5,0.0,2.0,72,0.00,,,0.00,Wunderground v.1.15,2013-03-07 16:05:00,
2013-03-07 10:09:00,33.5,25.8,30.34,North,5,0.0,2.0,73,0.00,,,0.00,Wunderground v.1.15,2013-03-07 16:09:00,
2013-03-07 10:10:00,33.5,25.8,30.34,North,5,0.0,2.0,73,0.00,,,0.00,Wunderground v.1.15,2013-03-07 16:10:00,
2013-03-07 10:14:00,33.7,26.0,30.34,North,5,0.0,0.0,73,0.00,,,0.00,Wunderground v.1.15,2013-03-07 16:14:00,
2013-03-07 10:15:00,33.7,26.0,30.34,North,5,0.0,0.0,73,0.00,,,0.00,Wunderground v.1.15,2013-03-07 16:15:00,
2013-03-07 10:16:00,33.7,25.6,30.34,North,5,0.0,0.0,72,0.00,,,0.00,Wunderground v.1.15,2013-03-07 16:16:00,
2013-03-07 10:19:00,33.7,26.0,30.34,North,9,0.0,4.0,73,0.00,,,0.00,Wunderground v.1.15,2013-03-07 16:19:00,
2013-03-07 10:20:00,33.7,26.0,30.34,North,9,0.0,0.0,73,0.00,,,0.00,Wunderground v.1.15,2013-03-07 16:20:00,
2013-03-07 10:21:00,33.8,26.1,30.33,North,9,0.0,0.0,73,0.00,,,0.00,Wunderground v.1.15,2013-03-07 16:21:00,
2013-03-07 10:25:00,34.0,26.3,30.33,North,9,0.0,0.0,73,0.00,,,0.00,Wunderground v.1.15,2013-03-07 16:25:00,
2013-03-07 10:26:00,34.0,26.3,30.33,North,9,0.0,0.0,73,0.00,,,0.00,Wunderground v.1.15,2013-03-07 16:26:00,
2013-03-07 10:30:00,34.1,26.0,30.33,North,9,0.0,0.0,72,0.00,,,0.00,Wunderground v.1.15,2013-03-07 16:30:00,
2013-03-07 10:32:00,34.1,26.0,30.33,North,9,0.0,0.0,72,0.00,,,0.00,Wunderground v.1.15,2013-03-07 16:32:00,
2013-03-07 10:35:00,34.3,26.5,30.33,SE,135,0.0,5.0,73,0.00,,,0.00,Wunderground v.1.15,2013-03-07 16:35:00,
2013-03-07 10:37:00,34.3,26.2,30.33,SE,131,5.0,5.0,72,0.00,,,0.00,Wunderground v.1.15,2013-03-07 16:37:00,
2013-03-07 10:40:00,34.1,25.7,30.33,SE,128,0.0,1.0,71,0.00,,,0.00,Wunderground v.1.15,2013-03-07 16:40:00,
2013-03-07 10:42:00,34.0,25.9,30.33,SE,128,0.0,1.0,72,0.00,,,0.00,Wunderground v.1.15,2013-03-07 16:42:00,
2013-03-07 10:45:00,34.0,25.9,30.33,SE,126,0.0,4.0,72,0.00,,,0.00,Wunderground v.1.15,2013-03-07 16:45:00,
2013-03-07 10:47:00,34.1,26.0,30.33,SE,126,0.0,4.0,72,0.00,,,0.00,Wunderground v.1.15,2013-03-07 16:47:00,
2013-03-07 10:51:00,34.0,25.6,30.33,SE,126,0.0,0.0,71,0.00,,,0.00,Wunderground v.1.15,2013-03-07 16:51:00,
2013-03-07 10:53:00,34.0,25.9,30.33,SE,124,0.0,2.0,72,0.00,,,0.00,Wunderground v.1.15,2013-03-07 16:53:00,
2013-03-07 10:56:00,34.0,25.9,30.33,SE,124,0.0,2.0,72,0.00,,,0.00,Wunderground v.1.15,2013-03-07 16:56:00,
2013-03-07 10:58:00,34.0,25.9,30.33,SE,125,0.0,2.0,72,0.00,,,0.00,Wunderground v.1.15,2013-03-07 16:58:00,
2013-03-07 11:00:00,34.4,26.3,30.33,SE,135,0.0,6.0,72,0.00,,,-99.99,WeatherLink 5.6,2013-03-07 17:00:00,
2013-03-07 11:02:00,34.1,26.3,30.33,SE,125,0.0,0.0,73,0.00,,,0.00,Wunderground v.1.15,2013-03-07 17:02:00,
2013-03-07 11:03:00,34.1,26.3,30.33,SE,125,0.0,0.0,73,0.00,,,0.00,Wunderground v.1.15,2013-03-07 17:03:00,
2013-03-07 11:07:00,34.4,26.3,30.33,SE,124,0.0,0.0,72,0.00,,,0.00,Wunderground v.1.15,2013-03-07 17:07:00,
2013-03-07 11:08:00,34.4,26.3,30.33,SE,124,0.0,0.0,72,0.00,,,0.00,Wunderground v.1.15,2013-03-07 17:08:00,
2013-03-07 11:09:00,34.3,25.9,30.33,SE,125,0.0,0.0,71,0.00,,,0.00,Wunderground v.1.15,2013-03-07 17:09:00,
2013-03-07 11:12:00,34.4,26.3,30.33,ESE,123,0.0,2.0,72,0.00,,,0.00,Wunderground v.1.15,2013-03-07 17:12:00,
2013-03-07 11:13:00,34.4,26.3,30.33,ESE,123,0.0,2.0,72,0.00,,,0.00,Wunderground v.1.15,2013-03-07 17:13:00,
2013-03-07 11:14:00,34.4,26.3,30.33,ESE,123,0.0,2.0,72,0.00,,,0.00,Wunderground v.1.15,2013-03-07 17:14:00,
2013-03-07 11:17:00,34.6,26.5,30.33,ESE,123,0.0,2.0,72,0.00,,,0.00,Wunderground v.1.15,2013-03-07 17:17:00,
2013-03-07 11:18:00,34.6,26.5,30.33,ESE,123,0.0,2.0,72,0.00,,,0.00,Wunderground v.1.15,2013-03-07 17:18:00,
2013-03-07 11:19:00,34.6,26.5,30.33,ESE,123,0.0,2.0,72,0.00,,,0.00,Wunderground v.1.15,2013-03-07 17:19:00,
2013-03-07 11:22:00,34.6,26.2,30.33,ESE,123,0.0,0.0,71,0.00,,,0.00,Wunderground v.1.15,2013-03-07 17:22:00,
2013-03-07 11:23:00,34.7,26.3,30.33,ESE,123,0.0,0.0,71,0.00,,,0.00,Wunderground v.1.15,2013-03-07 17:23:00,
2013-03-07 11:24:00,34.7,26.6,30.33,ESE,123,0.0,0.0,72,0.00,,,0.00,Wunderground v.1.15,2013-03-07 17:24:00,
2013-03-07 11:28:00,34.9,26.8,30.33,ESE,123,0.0,0.0,72,0.00,,,0.00,Wunderground v.1.15,2013-03-07 17:28:00,
2013-03-07 11:29:00,34.9,26.8,30.33,ESE,123,0.0,0.0,72,0.00,,,0.00,Wunderground v.1.15,2013-03-07 17:29:00,
2013-03-07 11:33:00,35.0,26.2,30.33,ESE,123,0.0,0.0,70,0.00,,,0.00,Wunderground v.1.15,2013-03-07 17:33:00,
2013-03-07 11:34:00,34.9,26.1,30.33,ESE,123,0.0,0.0,70,0.00,,,0.00,Wunderground v.1.15,2013-03-07 17:34:00,
2013-03-07 11:38:00,35.0,26.2,30.33,ESE,123,0.0,0.0,70,0.00,,,0.00,Wunderground v.1.15,2013-03-07 17:38:00,
2013-03-07 11:39:00,35.0,26.2,30.33,ESE,123,0.0,0.0,70,0.00,,,0.00,Wunderground v.1.15,2013-03-07 17:39:00,
2013-03-07 11:44:00,35.2,26.4,30.33,ESE,123,0.0,0.0,70,0.00,,,0.00,Wunderground v.1.15,2013-03-07 17:44:00,
2013-03-07 11:49:00,35.2,26.0,30.33,ESE,121,0.0,3.0,69,0.00,,,0.00,Wunderground v.1.15,2013-03-07 17:49:00,
2013-03-07 11:50:00,35.2,26.0,30.33,ESE,121,0.0,3.0,69,0.00,,,0.00,Wunderground v.1.15,2013-03-07 17:50:00,
2013-03-07 11:55:00,35.2,26.7,30.33,NNE,20,1.0,5.0,71,0.00,,,0.00,Wunderground v.1.15,2013-03-07 17:55:00,
2013-03-07 12:00:00,35.2,26.4,30.33,North,351,0.0,5.0,70,0.00,,,0.00,Wunderground v.1.15,2013-03-07 18:00:00,
2013-03-07 12:01:00,35.2,26.4,30.33,North,350,0.0,1.0,70,0.00,,,0.00,Wunderground v.1.15,2013-03-07 18:01:00,
2013-03-07 12:05:00,35.3,26.5,30.33,NNW,344,0.0,4.0,70,0.00,,,0.00,Wunderground v.1.15,2013-03-07 18:05:00,
2013-03-07 12:07:00,35.3,26.8,30.33,NNW,344,0.0,4.0,71,0.00,,,0.00,Wunderground v.1.15,2013-03-07 18:07:00,
2013-03-07 12:10:00,35.3,26.5,30.33,NNW,342,0.0,4.0,70,0.00,,,0.00,Wunderground v.1.15,2013-03-07 18:10:00,
2013-03-07 12:12:00,35.3,26.5,30.33,NNW,342,0.0,0.0,70,0.00,,,0.00,Wunderground v.1.15,2013-03-07 18:12:00,
2013-03-07 12:15:00,35.3,26.5,30.33,NNW,336,0.0,3.0,70,0.00,,,0.00,Wunderground v.1.15,2013-03-07 18:15:00,
2013-03-07 12:17:00,35.3,26.8,30.33,NNW,336,0.0,3.0,71,0.00,,,0.00,Wunderground v.1.15,2013-03-07 18:17:00,
2013-03-07 12:20:00,35.3,26.5,30.33,NNW,342,0.0,3.0,70,0.00,,,0.00,Wunderground v.1.15,2013-03-07 18:20:00,
2013-03-07 12:22:00,35.3,26.8,30.33,NNW,341,0.0,2.0,71,0.00,,,0.00,Wunderground v.1.15,2013-03-07 18:22:00,
2013-03-07 12:25:00,35.3,26.8,30.33,NNW,342,0.0,4.0,71,0.00,,,0.00,Wunderground v.1.15,2013-03-07 18:25:00,
2013-03-07 12:27:00,35.3,26.8,30.33,NNW,342,0.0,4.0,71,0.00,,,0.00,Wunderground v.1.15,2013-03-07 18:27:00,
2013-03-07 12:30:00,35.3,26.8,30.33,NNW,342,0.0,0.0,71,0.00,,,0.00,Wunderground v.1.15,2013-03-07 18:30:00,
2013-03-07 12:31:00,35.3,26.5,30.33,NNW,342,0.0,0.0,70,0.00,,,0.00,Wunderground v.1.15,2013-03-07 18:31:00,
2013-03-07 12:32:00,35.3,26.5,30.33,NNW,342,0.0,0.0,70,0.00,,,0.00,Wunderground v.1.15,2013-03-07 18:32:00,
2013-03-07 12:35:00,35.3,26.1,30.33,NNW,342,0.0,0.0,69,0.00,,,0.00,Wunderground v.1.15,2013-03-07 18:35:00,
2013-03-07 12:36:00,35.3,26.5,30.33,NNW,342,0.0,0.0,70,0.00,,,0.00,Wunderground v.1.15,2013-03-07 18:36:00,
2013-03-07 12:37:00,35.5,26.3,30.33,NNW,342,0.0,0.0,69,0.00,,,0.00,Wunderground v.1.15,2013-03-07 18:37:00,
2013-03-07 12:41:00,35.6,26.8,30.33,NNW,342,0.0,0.0,70,0.00,,,0.00,Wunderground v.1.15,2013-03-07 18:41:00,
2013-03-07 12:43:00,35.8,26.6,30.33,NNW,342,0.0,0.0,69,0.00,,,0.00,Wunderground v.1.15,2013-03-07 18:43:00,
2013-03-07 12:46:00,35.9,26.7,30.33,NNW,342,0.0,0.0,69,0.00,,,0.00,Wunderground v.1.15,2013-03-07 18:46:00,
2013-03-07 12:48:00,36.0,26.8,30.33,NNW,342,0.0,0.0,69,0.00,,,0.00,Wunderground v.1.15,2013-03-07 18:48:00,
2013-03-07 12:51:00,36.2,27.4,30.31,NNW,338,0.0,0.0,70,0.00,,,0.00,Wunderground v.1.15,2013-03-07 18:51:00,
2013-03-07 12:52:00,36.3,27.4,30.31,NNW,338,0.0,0.0,70,0.00,,,0.00,Wunderground v.1.15,2013-03-07 18:52:00,
2013-03-07 12:53:00,36.3,27.1,30.31,NNW,337,0.0,0.0,69,0.00,,,0.00,Wunderground v.1.15,2013-03-07 18:53:00,
2013-03-07 12:56:00,36.3,26.7,30.31,NW,325,0.0,4.0,68,0.00,,,0.00,Wunderground v.1.15,2013-03-07 18:56:00,
2013-03-07 12:57:00,36.3,26.7,30.31,NW,319,1.0,4.0,68,0.00,,,0.00,Wunderground v.1.15,2013-03-07 18:57:00,
2013-03-07 12:58:00,36.3,26.7,30.31,NW,317,0.0,4.0,68,0.00,,,0.00,Wunderground v.1.15,2013-03-07 18:58:00,
2013-03-07 13:00:00,36.5,27.3,30.31,NW,315,0.0,5.0,69,0.00,,,-99.99,WeatherLink 5.6,2013-03-07 19:00:00,
2013-03-07 13:01:00,36.3,27.1,30.31,NW,316,0.0,2.0,69,0.00,,,0.00,Wunderground v.1.15,2013-03-07 19:01:00,
2013-03-07 13:03:00,36.3,27.1,30.31,NW,315,0.0,5.0,69,0.00,,,0.00,Wunderground v.1.15,2013-03-07 19:03:00,
2013-03-07 13:04:00,36.5,27.6,30.31,NW,315,2.0,5.0,70,0.00,,,0.00,Wunderground v.1.15,2013-03-07 19:04:00,
2013-03-07 13:06:00,36.5,27.3,30.31,NW,314,4.0,5.0,69,0.00,,,0.00,Wunderground v.1.15,2013-03-07 19:06:00,
2013-03-07 13:08:00,36.5,27.3,30.31,NW,313,0.0,5.0,69,0.00,,,0.00,Wunderground v.1.15,2013-03-07 19:08:00,
2013-03-07 13:09:00,36.5,27.3,30.31,NW,313,0.0,5.0,69,0.00,,,0.00,Wunderground v.1.15,2013-03-07 19:09:00,
2013-03-07 13:11:00,36.5,26.9,30.31,West,260,0.0,4.0,68,0.00,,,0.00,Wunderground v.1.15,2013-03-07 19:11:00,
2013-03-07 13:13:00,36.5,26.9,30.31,West,260,0.0,4.0,68,0.00,,,0.00,Wunderground v.1.15,2013-03-07 19:13:00,
2013-03-07 13:14:00,36.3,26.7,30.31,West,260,0.0,4.0,68,0.00,,,0.00,Wunderground v.1.15,2013-03-07 19:14:00,
2013-03-07 13:16:00,36.5,27.3,30.31,West,259,0.0,4.0,69,0.00,,,0.00,Wunderground v.1.15,2013-03-07 19:16:00,
2013-03-07 13:18:00,36.6,27.7,30.31,West,259,0.0,4.0,70,0.00,,,0.00,Wunderground v.1.15,2013-03-07 19:18:00,
2013-03-07 13:19:00,36.6,27.4,30.31,West,259,0.0,4.0,69,0.00,,,0.00,Wunderground v.1.15,2013-03-07 19:19:00,
2013-03-07 13:22:00,36.6,27.4,30.30,SE,135,5.0,6.0,69,0.00,,,0.00,Wunderground v.1.15,2013-03-07 19:22:00,
2013-03-07 13:23:00,36.8,27.6,30.30,SE,138,0.0,6.0,69,0.00,,,0.00,Wunderground v.1.15,2013-03-07 19:23:00,
2013-03-07 13:24:00,36.8,27.6,30.30,SSW,195,4.0,6.0,69,0.00,,,0.00,Wunderground v.1.15,2013-03-07 19:24:00,
2013-03-07 13:27:00,36.6,26.7,30.30,South,172,0.0,6.0,67,0.00,,,0.00,Wunderground v.1.15,2013-03-07 19:27:00,
2013-03-07 13:29:00,36.6,27.0,30.30,South,172,0.0,6.0,68,0.00,,,0.00,Wunderground v.1.15,2013-03-07 19:29:00,
2013-03-07 13:30:00,36.6,27.0,30.30,South,174,0.0,6.0,68,0.00,,,0.00,Wunderground v.1.15,2013-03-07 19:30:00,
2013-03-07 13:33:00,36.9,28.0,30.30,South,180,0.0,1.0,70,0.00,,,0.00,Wunderground v.1.15,2013-03-07 19:33:00,
2013-03-07 13:34:00,36.9,27.7,30.30,South,180,0.0,1.0,69,0.00,,,0.00,Wunderground v.1.15,2013-03-07 19:34:00,
2013-03-07 13:35:00,36.9,27.3,30.30,South,180,0.0,1.0,68,0.00,,,0.00,Wunderground v.1.15,2013-03-07 19:35:00,
2013-03-07 13:38:00,37.0,27.4,30.29,NW,325,2.0,5.0,68,0.00,,,0.00,Wunderground v.1.15,2013-03-07 19:38:00,
2013-03-07 13:39:00,37.0,27.8,30.29,NW,324,0.0,5.0,69,0.00,,,0.00,Wunderground v.1.15,2013-03-07 19:39:00,
2013-03-07 13:40:00,37.0,27.4,30.29,NW,324,0.0,5.0,68,0.00,,,0.00,Wunderground v.1.15,2013-03-07 19:40:00,
2013-03-07 13:43:00,37.2,27.6,30.29,WNW,302,3.0,6.0,68,0.00,,,0.00,Wunderground v.1.15,2013-03-07 19:43:00,
2013-03-07 13:44:00,37.2,28.3,30.29,WNW,299,4.0,6.0,70,0.00,,,0.00,Wunderground v.1.15,2013-03-07 19:44:00,
2013-03-07 13:45:00,37.2,27.2,30.29,WNW,300,0.0,6.0,67,0.00,,,0.00,Wunderground v.1.15,2013-03-07 19:45:00,
2013-03-07 13:48:00,37.0,27.4,30.29,WNW,299,0.0,6.0,68,0.00,,,0.00,Wunderground v.1.15,2013-03-07 19:48:00,
2013-03-07 13:50:00,37.0,27.4,30.29,WNW,299,0.0,6.0,68,0.00,,,0.00,Wunderground v.1.15,2013-03-07 19:50:00,
2013-03-07 13:54:00,37.2,28.0,30.29,WNW,299,0.0,1.0,69,0.00,,,0.00,Wunderground v.1.15,2013-03-07 19:54:00,
2013-03-07 13:55:00,37.3,27.7,30.29,WNW,299,0.0,1.0,68,0.00,,,0.00,Wunderground v.1.15,2013-03-07 19:55:00,
2013-03-07 13:56:00,37.3,27.7,30.29,WNW,299,0.0,1.0,68,0.00,,,0.00,Wunderground v.1.15,2013-03-07 19:56:00,
2013-03-07 13:59:00,37.5,27.9,30.29,WNW,299,0.0,1.0,68,0.00,,,0.00,Wunderground v.1.15,2013-03-07 19:59:00,
2013-03-07 14:00:00,37.6,28.3,30.29,WNW,299,0.0,0.0,69,0.00,,,0.00,Wunderground v.1.15,2013-03-07 20:00:00,
2013-03-07 14:01:00,37.6,28.3,30.29,WNW,297,0.0,0.0,69,0.00,,,0.00,Wunderground v.1.15,2013-03-07 20:01:00,
2013-03-07 14:05:00,37.5,27.2,30.29,WNW,297,0.0,0.0,66,0.00,,,0.00,Wunderground v.1.15,2013-03-07 20:05:00,
2013-03-07 14:06:00,37.3,27.0,30.29,WNW,297,0.0,0.0,66,0.00,,,0.00,Wunderground v.1.15,2013-03-07 20:06:00,
2013-03-07 14:10:00,37.3,26.6,30.29,South,169,6.0,7.0,65,0.00,,,0.00,Wunderground v.1.15,2013-03-07 20:10:00,
2013-03-07 14:11:00,37.2,26.5,30.29,SSE,168,0.0,5.0,65,0.00,,,0.00,Wunderground v.1.15,2013-03-07 20:11:00,
2013-03-07 14:15:00,37.2,26.9,30.29,SE,142,5.0,10.0,66,0.00,,,0.00,Wunderground v.1.15,2013-03-07 20:15:00,
2013-03-07 14:16:00,37.2,27.2,30.29,ESE,119,4.0,10.0,67,0.00,,,0.00,Wunderground v.1.15,2013-03-07 20:16:00,
2013-03-07 14:20:00,37.2,26.9,30.29,East,88,0.0,2.0,66,0.00,,,0.00,Wunderground v.1.15,2013-03-07 20:20:00,
2013-03-07 14:21:00,37.2,26.9,30.28,East,88,0.0,2.0,66,0.00,,,0.00,Wunderground v.1.15,2013-03-07 20:21:00,
2013-03-07 14:26:00,37.2,26.5,30.28,East,90,0.0,4.0,65,0.00,,,0.00,Wunderground v.1.15,2013-03-07 20:26:00,
2013-03-07 14:31:00,37.5,27.2,30.28,East,90,0.0,0.0,66,0.00,,,0.00,Wunderground v.1.15,2013-03-07 20:31:00,
2013-03-07 14:32:00,37.5,27.2,30.28,East,90,0.0,0.0,66,0.00,,,0.00,Wunderground v.1.15,2013-03-07 20:32:00,
2013-03-07 14:36:00,37.9,28.3,30.29,East,80,0.0,0.0,68,0.00,,,0.00,Wunderground v.1.15,2013-03-07 20:36:00,
2013-03-07 14:37:00,37.9,28.3,30.29,East,80,0.0,0.0,68,0.00,,,0.00,Wunderground v.1.15,2013-03-07 20:37:00,
2013-03-07 14:38:00,37.9,27.9,30.29,ENE,76,0.0,0.0,67,0.00,,,0.00,Wunderground v.1.15,2013-03-07 20:38:00,
2013-03-07 14:42:00,38.0,27.6,30.29,North,360,0.0,0.0,66,0.00,,,0.00,Wunderground v.1.15,2013-03-07 20:42:00,
2013-03-07 14:43:00,38.0,27.6,30.29,North,360,0.0,0.0,66,0.00,,,0.00,Wunderground v.1.15,2013-03-07 20:43:00,
2013-03-07 14:47:00,38.0,27.6,30.29,NNE,26,0.0,2.0,66,0.00,,,0.00,Wunderground v.1.15,2013-03-07 20:47:00,
2013-03-07 14:49:00,38.0,27.3,30.29,NE,41,0.0,5.0,65,0.00,,,0.00,Wunderground v.1.15,2013-03-07 20:49:00,
2013-03-07 14:52:00,37.8,26.7,30.29,SSE,153,0.0,1.0,64,0.00,,,0.00,Wunderground v.1.15,2013-03-07 20:52:00,
2013-03-07 14:54:00,37.6,26.9,30.29,SSE,149,0.0,1.0,65,0.00,,,0.00,Wunderground v.1.15,2013-03-07 20:54:00,
2013-03-07 14:57:00,37.6,26.9,30.29,SSE,149,0.0,1.0,65,0.00,,,0.00,Wunderground v.1.15,2013-03-07 20:57:00,
2013-03-07 14:59:00,37.6,27.3,30.29,SSE,149,0.0,1.0,66,0.00,,,0.00,Wunderground v.1.15,2013-03-07 20:59:00,
2013-03-07 15:00:00,37.6,26.9,30.28,SSE,157,1.0,11.0,65,0.00,,,-99.99,WeatherLink 5.6,2013-03-07 21:00:00,
2013-03-07 15:02:00,37.9,27.5,30.29,South,173,4.0,4.0,66,0.00,,,0.00,Wunderground v.1.15,2013-03-07 21:02:00,
2013-03-07 15:03:00,37.9,27.5,30.29,ESE,104,0.0,6.0,66,0.00,,,0.00,Wunderground v.1.15,2013-03-07 21:03:00,
2013-03-07 15:04:00,37.9,27.5,30.29,SE,141,9.0,11.0,66,0.00,,,0.00,Wunderground v.1.15,2013-03-07 21:04:00,
2013-03-07 15:07:00,37.6,26.9,30.28,SSE,161,3.0,11.0,65,0.00,,,0.00,Wunderground v.1.15,2013-03-07 21:07:00,
2013-03-07 15:08:00,37.6,26.9,30.28,SSE,161,3.0,11.0,65,0.00,,,0.00,Wunderground v.1.15,2013-03-07 21:08:00,
2013-03-07 15:09:00,37.5,26.8,30.28,South,191,3.0,11.0,65,0.00,,,0.00,Wunderground v.1.15,2013-03-07 21:09:00,
2013-03-07 15:13:00,37.6,26.9,30.28,SW,226,0.0,4.0,65,0.00,,,0.00,Wunderground v.1.15,2013-03-07 21:13:00,
2013-03-07 15:14:00,37.8,27.1,30.28,SW,226,0.0,4.0,65,0.00,,,0.00,Wunderground v.1.15,2013-03-07 21:14:00,
2013-03-07 15:18:00,38.0,27.6,30.28,East,96,0.0,6.0,66,0.00,,,0.00,Wunderground v.1.15,2013-03-07 21:18:00,
2013-03-07 15:20:00,38.2,27.5,30.28,SE,141,0.0,6.0,65,0.00,,,0.00,Wunderground v.1.15,2013-03-07 21:20:00,
2013-03-07 15:23:00,38.3,27.6,30.28,SE,130,0.0,4.0,65,0.00,,,0.00,Wunderground v.1.15,2013-03-07 21:23:00,
2013-03-07 15:25:00,38.3,27.2,30.28,SSE,157,0.0,4.0,64,0.00,,,0.00,Wunderground v.1.15,2013-03-07 21:25:00,
2013-03-07 15:28:00,38.0,26.9,30.28,SSE,156,0.0,4.0,64,0.00,,,0.00,Wunderground v.1.15,2013-03-07 21:28:00,
2013-03-07 15:29:00,38.0,26.9,30.28,SSE,156,0.0,4.0,64,0.00,,,0.00,Wunderground v.1.15,2013-03-07 21:29:00,
2013-03-07 15:31:00,38.0,27.3,30.28,SSE,155,0.0,0.0,65,0.00,,,0.00,Wunderground v.1.15,2013-03-07 21:31:00,
2013-03-07 15:33:00,38.0,27.3,30.28,SE,127,0.0,1.0,65,0.00,,,0.00,Wunderground v.1.15,2013-03-07 21:33:00,
2013-03-07 15:34:00,38.0,27.3,30.28,SE,127,0.0,1.0,65,0.00,,,0.00,Wunderground v.1.15,2013-03-07 21:34:00,
2013-03-07 15:36:00,38.2,27.5,30.29,South,178,0.0,2.0,65,0.00,,,0.00,Wunderground v.1.15,2013-03-07 21:36:00,
2013-03-07 15:39:00,38.2,27.5,30.29,SE,128,5.0,5.0,65,0.00,,,0.00,Wunderground v.1.15,2013-03-07 21:39:00,
2013-03-07 15:42:00,38.2,27.1,30.29,ESE,118,0.0,0.0,64,0.00,,,0.00,Wunderground v.1.15,2013-03-07 21:42:00,
2013-03-07 15:44:00,38.2,27.5,30.29,South,172,6.0,7.0,65,0.00,,,0.00,Wunderground v.1.15,2013-03-07 21:44:00,
2013-03-07 15:47:00,38.0,27.3,30.29,SE,145,5.0,7.0,65,0.00,,,0.00,Wunderground v.1.15,2013-03-07 21:47:00,
2013-03-07 15:49:00,37.9,27.2,30.29,ESE,119,1.0,7.0,65,0.00,,,0.00,Wunderground v.1.15,2013-03-07 21:49:00,
2013-03-07 15:52:00,37.9,27.2,30.28,ESE,123,0.0,4.0,65,0.00,,,0.00,Wunderground v.1.15,2013-03-07 21:52:00,
2013-03-07 15:54:00,37.9,26.8,30.28,SE,126,0.0,4.0,64,0.00,,,0.00,Wunderground v.1.15,2013-03-07 21:54:00,
2013-03-07 15:55:00,37.9,27.2,30.28,SE,126,0.0,4.0,65,0.00,,,0.00,Wunderground v.1.15,2013-03-07 21:55:00,
2013-03-07 15:58:00,38.0,27.3,30.28,SE,126,0.0,4.0,65,0.00,,,0.00,Wunderground v.1.15,2013-03-07 21:58:00,
2013-03-07 15:59:00,38.0,27.6,30.28,SE,126,0.0,4.0,66,0.00,,,0.00,Wunderground v.1.15,2013-03-07 21:59:00,
2013-03-07 16:00:00,38.0,27.3,30.28,SE,125,0.0,4.0,65,0.00,,,0.00,Wunderground v.1.15,2013-03-07 22:00:00,
2013-03-07 16:03:00,38.3,27.9,30.28,NE,55,0.0,0.0,66,0.00,,,0.00,Wunderground v.1.15,2013-03-07 22:03:00,
2013-03-07 16:04:00,38.3,27.9,30.28,NE,54,0.0,0.0,66,0.00,,,0.00,Wunderground v.1.15,2013-03-07 22:04:00,
2013-03-07 16:05:00,38.3,27.9,30.28,NE,54,0.0,0.0,66,0.00,,,0.00,Wunderground v.1.15,2013-03-07 22:05:00,
2013-03-07 16:08:00,38.3,27.6,30.28,North,355,0.0,2.0,65,0.00,,,0.00,Wunderground v.1.15,2013-03-07 22:08:00,
2013-03-07 16:09:00,38.3,27.9,30.28,North,355,0.0,2.0,66,0.00,,,0.00,Wunderground v.1.15,2013-03-07 22:09:00,
2013-03-07 16:10:00,38.3,27.9,30.28,North,355,0.0,2.0,66,0.00,,,0.00,Wunderground v.1.15,2013-03-07 22:10:00,
2013-03-07 16:14:00,38.2,27.5,30.28,North,355,0.0,0.0,65,0.00,,,0.00,Wunderground v.1.15,2013-03-07 22:14:00,
2013-03-07 16:15:00,38.2,27.5,30.28,North,355,0.0,0.0,65,0.00,,,0.00,Wunderground v.1.15,2013-03-07 22:15:00,
2013-03-07 16:20:00,38.2,27.5,30.28,North,355,0.0,4.0,65,0.00,,,0.00,Wunderground v.1.15,2013-03-07 22:20:00,
2013-03-07 16:25:00,38.0,27.3,30.28,North,355,0.0,0.0,65,0.00,,,0.00,Wunderground v.1.15,2013-03-07 22:25:00,
2013-03-07 16:30:00,37.9,27.2,30.28,North,355,0.0,0.0,65,0.00,,,0.00,Wunderground v.1.15,2013-03-07 22:30:00,
2013-03-07 16:31:00,37.9,27.2,30.28,North,355,0.0,0.0,65,0.00,,,0.00,Wunderground v.1.15,2013-03-07 22:31:00,
2013-03-07 16:35:00,37.9,27.2,30.28,North,355,0.0,0.0,65,0.00,,,0.00,Wunderground v.1.15,2013-03-07 22:35:00,
2013-03-07 16:36:00,37.9,27.2,30.28,North,355,0.0,0.0,65,0.00,,,0.00,Wunderground v.1.15,2013-03-07 22:36:00,
2013-03-07 16:40:00,37.9,27.5,30.28,North,355,0.0,0.0,66,0.00,,,0.00,Wunderground v.1.15,2013-03-07 22:40:00,
2013-03-07 16:42:00,37.9,27.5,30.28,North,355,0.0,0.0,66,0.00,,,0.00,Wunderground v.1.15,2013-03-07 22:42:00,
2013-03-07 16:45:00,37.9,27.5,30.28,North,355,0.0,0.0,66,0.00,,,0.00,Wunderground v.1.15,2013-03-07 22:45:00,
2013-03-07 16:47:00,37.9,27.5,30.28,North,355,0.0,0.0,66,0.00,,,0.00,Wunderground v.1.15,2013-03-07 22:47:00,
2013-03-07 16:50:00,37.9,27.2,30.28,North,355,0.0,0.0,65,0.00,,,0.00,Wunderground v.1.15,2013-03-07 22:50:00,
2013-03-07 16:51:00,37.9,27.2,30.28,North,355,0.0,0.0,65,0.00,,,0.00,Wunderground v.1.15,2013-03-07 22:51:00,
2013-03-07 16:52:00,37.9,27.5,30.28,North,355,0.0,0.0,66,0.00,,,0.00,Wunderground v.1.15,2013-03-07 22:52:00,
2013-03-07 16:56:00,38.0,27.3,30.28,North,355,0.0,0.0,65,0.00,,,0.00,Wunderground v.1.15,2013-03-07 22:56:00,
2013-03-07 16:57:00,38.0,27.6,30.28,North,355,0.0,0.0,66,0.00,,,0.00,Wunderground v.1.15,2013-03-07 22:57:00,
2013-03-07 17:00:00,37.9,27.5,30.28,North,0,0.0,4.0,66,0.00,,,-99.99,WeatherLink 5.6,2013-03-07 23:00:00,
2013-03-07 17:01:00,38.0,27.3,30.28,North,355,0.0,0.0,65,0.00,,,0.00,Wunderground v.1.15,2013-03-07 23:01:00,
2013-03-07 17:03:00,37.9,27.2,30.28,North,355,0.0,0.0,65,0.00,,,0.00,Wunderground v.1.15,2013-03-07 23:03:00,
2013-03-07 17:06:00,37.9,27.5,30.28,North,355,0.0,0.0,66,0.00,,,0.00,Wunderground v.1.15,2013-03-07 23:06:00,
2013-03-07 17:07:00,37.9,27.5,30.28,North,355,0.0,0.0,66,0.00,,,0.00,Wunderground v.1.15,2013-03-07 23:07:00,
2013-03-07 17:08:00,37.9,27.5,30.28,North,355,0.0,0.0,66,0.00,,,0.00,Wunderground v.1.15,2013-03-07 23:08:00,
2013-03-07 17:11:00,37.9,27.5,30.28,North,355,0.0,0.0,66,0.00,,,0.00,Wunderground v.1.15,2013-03-07 23:11:00,
2013-03-07 17:12:00,37.9,27.5,30.28,North,355,0.0,0.0,66,0.00,,,0.00,Wunderground v.1.15,2013-03-07 23:12:00,
2013-03-07 17:13:00,37.9,27.5,30.28,North,355,0.0,0.0,66,0.00,,,0.00,Wunderground v.1.15,2013-03-07 23:13:00,
2013-03-07 17:17:00,37.9,27.5,30.28,North,355,0.0,0.0,66,0.00,,,0.00,Wunderground v.1.15,2013-03-07 23:17:00,
2013-03-07 17:18:00,37.9,27.5,30.28,North,355,0.0,0.0,66,0.00,,,0.00,Wunderground v.1.15,2013-03-07 23:18:00,
2013-03-07 17:22:00,37.9,27.5,30.29,North,355,0.0,0.0,66,0.00,,,0.00,Wunderground v.1.15,2013-03-07 23:22:00,
2013-03-07 17:23:00,37.9,27.5,30.29,North,355,0.0,0.0,66,0.00,,,0.00,Wunderground v.1.15,2013-03-07 23:23:00,
2013-03-07 17:27:00,37.9,27.5,30.29,North,355,0.0,0.0,66,0.00,,,0.00,Wunderground v.1.15,2013-03-07 23:27:00,
2013-03-07 17:28:00,37.8,27.5,30.29,North,355,0.0,0.0,66,0.00,,,0.00,Wunderground v.1.15,2013-03-07 23:28:00,
2013-03-07 17:29:00,37.8,27.5,30.29,North,355,0.0,0.0,66,0.00,,,0.00,Wunderground v.1.15,2013-03-07 23:29:00,
2013-03-07 17:32:00,37.8,27.5,30.29,North,355,0.0,0.0,66,0.00,,,0.00,Wunderground v.1.15,2013-03-07 23:32:00,
2013-03-07 17:33:00,37.8,27.5,30.29,North,355,0.0,0.0,66,0.00,,,0.00,Wunderground v.1.15,2013-03-07 23:33:00,
2013-03-07 17:34:00,37.8,27.5,30.29,North,355,0.0,0.0,66,0.00,,,0.00,Wunderground v.1.15,2013-03-07 23:34:00,
2013-03-07 17:37:00,37.8,27.8,30.29,North,355,0.0,0.0,67,0.00,,,0.00,Wunderground v.1.15,2013-03-07 23:37:00,
2013-03-07 17:38:00,37.8,27.8,30.29,North,355,0.0,0.0,67,0.00,,,0.00,Wunderground v.1.15,2013-03-07 23:38:00,
2013-03-07 17:39:00,37.6,27.6,30.29,North,355,0.0,0.0,67,0.00,,,0.00,Wunderground v.1.15,2013-03-07 23:39:00,
2013-03-07 17:42:00,37.6,27.6,30.29,North,355,0.0,0.0,67,0.00,,,0.00,Wunderground v.1.15,2013-03-07 23:42:00,
2013-03-07 17:44:00,37.6,27.6,30.29,North,355,0.0,0.0,67,0.00,,,0.00,Wunderground v.1.15,2013-03-07 23:44:00,
2013-03-07 17:47:00,37.6,28.0,30.29,North,355,0.0,0.0,68,0.00,,,0.00,Wunderground v.1.15,2013-03-07 23:47:00,
2013-03-07 17:49:00,37.6,28.0,30.29,North,355,0.0,0.0,68,0.00,,,0.00,Wunderground v.1.15,2013-03-07 23:49:00,
2013-03-07 17:50:00,37.6,28.0,30.29,North,355,0.0,0.0,68,0.00,,,0.00,Wunderground v.1.15,2013-03-07 23:50:00,
2013-03-07 17:52:00,37.5,27.9,30.29,North,355,0.0,0.0,68,0.00,,,0.00,Wunderground v.1.15,2013-03-07 23:52:00,
2013-03-07 17:54:00,37.5,27.9,30.29,North,355,0.0,0.0,68,0.00,,,0.00,Wunderground v.1.15,2013-03-07 23:54:00,
2013-03-07 17:55:00,37.3,27.7,30.29,North,355,0.0,0.0,68,0.00,,,0.00,Wunderground v.1.15,2013-03-07 23:55:00,
2013-03-07 17:58:00,37.3,27.7,30.29,North,355,0.0,0.0,68,0.00,,,0.00,Wunderground v.1.15,2013-03-07 23:58:00,
2013-03-07 17:59:00,37.3,28.1,30.29,North,355,0.0,0.0,69,0.00,,,0.00,Wunderground v.1.15,2013-03-07 23:59:00,
2013-03-07 18:00:00,37.0,27.4,30.29,North,-999,0.0,0.0,68,0.00,,,-99.99,WeatherLink 5.6,2013-03-08 00:00:00,
2013-03-07 18:01:00,37.2,27.6,30.29,North,355,0.0,0.0,68,0.00,,,0.00,Wunderground v.1.15,2013-03-08 00:01:00,
2013-03-07 18:03:00,37.2,27.6,30.29,North,355,0.0,0.0,68,0.00,,,0.00,Wunderground v.1.15,2013-03-08 00:03:00,
2013-03-07 18:04:00,37.2,28.0,30.29,North,355,0.0,0.0,69,0.00,,,0.00,Wunderground v.1.15,2013-03-08 00:04:00,
2013-03-07 18:06:00,37.2,27.6,30.29,North,355,0.0,0.0,68,0.00,,,0.00,Wunderground v.1.15,2013-03-08 00:06:00,
2013-03-07 18:08:00,37.0,27.8,30.29,North,355,0.0,0.0,69,0.00,,,0.00,Wunderground v.1.15,2013-03-08 00:08:00,
2013-03-07 18:09:00,37.0,27.8,30.29,North,355,0.0,0.0,69,0.00,,,0.00,Wunderground v.1.15,2013-03-08 00:09:00,
2013-03-07 18:12:00,36.9,27.7,30.29,North,355,0.0,0.0,69,0.00,,,0.00,Wunderground v.1.15,2013-03-08 00:12:00,
2013-03-07 18:14:00,36.9,27.7,30.29,North,355,0.0,0.0,69,0.00,,,0.00,Wunderground v.1.15,2013-03-08 00:14:00,
2013-03-07 18:17:00,36.6,27.4,30.29,North,355,0.0,0.0,69,0.00,,,0.00,Wunderground v.1.15,2013-03-08 00:17:00,
2013-03-07 18:19:00,36.6,27.4,30.29,North,355,0.0,0.0,69,0.00,,,0.00,Wunderground v.1.15,2013-03-08 00:19:00,
2013-03-07 18:23:00,36.3,27.4,30.29,North,355,0.0,0.0,70,0.00,,,0.00,Wunderground v.1.15,2013-03-08 00:23:00,
2013-03-07 18:24:00,36.3,27.4,30.29,North,355,0.0,0.0,70,0.00,,,0.00,Wunderground v.1.15,2013-03-08 00:24:00,
2013-03-07 18:25:00,36.3,27.4,30.29,North,355,0.0,0.0,70,0.00,,,0.00,Wunderground v.1.15,2013-03-08 00:25:00,
2013-03-07 18:28:00,36.2,27.7,30.29,North,355,0.0,0.0,71,0.00,,,0.00,Wunderground v.1.15,2013-03-08 00:28:00,
2013-03-07 18:29:00,36.0,27.5,30.29,North,355,0.0,0.0,71,0.00,,,0.00,Wunderground v.1.15,2013-03-08 00:29:00,
2013-03-07 18:30:00,36.0,27.5,30.29,North,355,0.0,0.0,71,0.00,,,0.00,Wunderground v.1.15,2013-03-08 00:30:00,
2013-03-07 18:34:00,36.0,27.5,30.29,North,355,0.0,0.0,71,0.00,,,0.00,Wunderground v.1.15,2013-03-08 00:34:00,
2013-03-07 18:35:00,35.9,27.4,30.29,North,355,0.0,0.0,71,0.00,,,0.00,Wunderground v.1.15,2013-03-08 00:35:00,
2013-03-07 18:39:00,35.9,27.4,30.30,North,355,0.0,0.0,71,0.00,,,0.00,Wunderground v.1.15,2013-03-08 00:39:00,
2013-03-07 18:40:00,35.9,27.4,30.30,North,355,0.0,0.0,71,0.00,,,0.00,Wunderground v.1.15,2013-03-08 00:40:00,
2013-03-07 18:45:00,35.6,27.8,30.30,North,355,0.0,0.0,73,0.00,,,0.00,Wunderground v.1.15,2013-03-08 00:45:00,
2013-03-07 18:50:00,35.2,28.1,30.30,North,355,0.0,0.0,75,0.00,,,0.00,Wunderground v.1.15,2013-03-08 00:50:00,
2013-03-07 18:51:00,35.0,27.9,30.30,North,355,0.0,0.0,75,0.00,,,0.00,Wunderground v.1.15,2013-03-08 00:51:00,
2013-03-07 18:55:00,34.6,27.5,30.31,North,355,0.0,0.0,75,0.00,,,0.00,Wunderground v.1.15,2013-03-08 00:55:00,
2013-03-07 18:56:00,34.6,27.5,30.31,North,355,0.0,0.0,75,0.00,,,0.00,Wunderground v.1.15,2013-03-08 00:56:00,
2013-03-07 19:00:00,34.4,27.3,30.31,North,355,0.0,0.0,75,0.00,,,0.00,Wunderground v.1.15,2013-03-08 01:00:00,
2013-03-07 19:01:00,34.1,27.0,30.31,North,355,0.0,0.0,75,0.00,,,0.00,Wunderground v.1.15,2013-03-08 01:01:00,
2013-03-07 19:05:00,33.7,27.3,30.31,North,355,0.0,0.0,77,0.00,,,0.00,Wunderground v.1.15,2013-03-08 01:05:00,
2013-03-07 19:07:00,33.5,27.1,30.31,North,355,0.0,0.0,77,0.00,,,0.00,Wunderground v.1.15,2013-03-08 01:07:00,
2013-03-07 19:10:00,33.2,27.1,30.31,North,355,0.0,0.0,78,0.00,,,0.00,Wunderground v.1.15,2013-03-08 01:10:00,
2013-03-07 19:12:00,33.2,27.4,30.31,North,355,0.0,0.0,79,0.00,,,0.00,Wunderground v.1.15,2013-03-08 01:12:00,
2013-03-07 19:15:00,32.9,27.1,30.31,North,355,0.0,0.0,79,0.00,,,0.00,Wunderground v.1.15,2013-03-08 01:15:00,
2013-03-07 19:17:00,32.9,27.1,30.31,North,355,0.0,0.0,79,0.00,,,0.00,Wunderground v.1.15,2013-03-08 01:17:00,
2013-03-07 19:18:00,32.8,27.0,30.31,North,355,0.0,0.0,79,0.00,,,0.00,Wunderground v.1.15,2013-03-08 01:18:00,
2013-03-07 19:20:00,32.8,27.0,30.31,North,355,0.0,0.0,79,0.00,,,0.00,Wunderground v.1.15,2013-03-08 01:20:00,
2013-03-07 19:22:00,32.8,27.0,30.31,North,355,0.0,0.0,79,0.00,,,0.00,Wunderground v.1.15,2013-03-08 01:22:00,
2013-03-07 19:23:00,32.7,26.9,30.31,North,355,0.0,0.0,79,0.00,,,0.00,Wunderground v.1.15,2013-03-08 01:23:00,
2013-03-07 19:25:00,32.7,27.2,30.31,North,355,0.0,0.0,80,0.00,,,0.00,Wunderground v.1.15,2013-03-08 01:25:00,
2013-03-07 19:27:00,32.5,27.0,30.31,North,355,0.0,0.0,80,0.00,,,0.00,Wunderground v.1.15,2013-03-08 01:27:00,
2013-03-07 19:28:00,32.5,27.0,30.31,North,355,0.0,0.0,80,0.00,,,0.00,Wunderground v.1.15,2013-03-08 01:28:00,
2013-03-07 19:30:00,32.1,26.6,30.31,North,355,0.0,0.0,80,0.00,,,0.00,Wunderground v.1.15,2013-03-08 01:30:00,
2013-03-07 19:32:00,31.9,26.4,30.31,North,355,0.0,0.0,80,0.00,,,0.00,Wunderground v.1.15,2013-03-08 01:32:00,
2013-03-07 19:33:00,31.9,26.7,30.31,North,355,0.0,0.0,81,0.00,,,0.00,Wunderground v.1.15,2013-03-08 01:33:00,
2013-03-07 19:36:00,31.8,26.6,30.31,North,355,0.0,0.0,81,0.00,,,0.00,Wunderground v.1.15,2013-03-08 01:36:00,
2013-03-07 19:37:00,31.6,26.4,30.29,North,355,0.0,0.0,81,0.00,,,0.00,Wunderground v.1.15,2013-03-08 01:37:00,
2013-03-07 19:38:00,31.6,26.4,30.29,North,355,0.0,0.0,81,0.00,,,0.00,Wunderground v.1.15,2013-03-08 01:38:00,
2013-03-07 19:41:00,31.5,26.6,30.29,North,355,0.0,0.0,82,0.00,,,0.00,Wunderground v.1.15,2013-03-08 01:41:00,
2013-03-07 19:42:00,31.3,26.4,30.29,North,355,0.0,0.0,82,0.00,,,0.00,Wunderground v.1.15,2013-03-08 01:42:00,
2013-03-07 19:44:00,31.3,26.4,30.29,North,355,0.0,0.0,82,0.00,,,0.00,Wunderground v.1.15,2013-03-08 01:44:00,
2013-03-07 19:47:00,31.0,26.1,30.29,North,355,0.0,0.0,82,0.00,,,0.00,Wunderground v.1.15,2013-03-08 01:47:00,
2013-03-07 19:48:00,31.0,26.1,30.29,North,355,0.0,0.0,82,0.00,,,0.00,Wunderground v.1.15,2013-03-08 01:48:00,
2013-03-07 19:49:00,31.0,26.1,30.29,North,355,0.0,0.0,82,0.00,,,0.00,Wunderground v.1.15,2013-03-08 01:49:00,
2013-03-07 19:52:00,30.9,26.1,30.29,North,355,0.0,0.0,82,0.00,,,0.00,Wunderground v.1.15,2013-03-08 01:52:00,
2013-03-07 19:54:00,30.9,26.1,30.29,North,355,0.0,0.0,82,0.00,,,0.00,Wunderground v.1.15,2013-03-08 01:54:00,
2013-03-07 19:57:00,30.7,26.1,30.29,North,355,0.0,0.0,83,0.00,,,0.00,Wunderground v.1.15,2013-03-08 01:57:00,
2013-03-07 19:59:00,30.6,26.1,30.29,North,355,0.0,0.0,83,0.00,,,0.00,Wunderground v.1.15,2013-03-08 01:59:00,
2013-03-07 20:00:00,29.8,25.6,30.29,North,-999,0.0,0.0,84,0.00,,,-99.99,WeatherLink 5.6,2013-03-08 02:00:00,
2013-03-07 20:02:00,30.1,25.6,30.29,North,355,0.0,0.0,83,0.00,,,0.00,Wunderground v.1.15,2013-03-08 02:02:00,
2013-03-07 20:04:00,30.0,25.8,30.29,North,355,0.0,0.0,84,0.00,,,0.00,Wunderground v.1.15,2013-03-08 02:04:00,
2013-03-07 20:07:00,29.8,25.6,30.29,North,355,0.0,0.0,84,0.00,,,0.00,Wunderground v.1.15,2013-03-08 02:07:00,
2013-03-07 20:09:00,29.7,25.5,30.29,North,355,0.0,0.0,84,0.00,,,0.00,Wunderground v.1.15,2013-03-08 02:09:00,
2013-03-07 20:12:00,29.5,25.5,30.29,North,355,0.0,0.0,85,0.00,,,0.00,Wunderground v.1.15,2013-03-08 02:12:00,
2013-03-07 20:14:00,29.5,25.5,30.29,North,355,0.0,0.0,85,0.00,,,0.00,Wunderground v.1.15,2013-03-08 02:14:00,
2013-03-07 20:15:00,29.5,25.5,30.29,North,355,0.0,0.0,85,0.00,,,0.00,Wunderground v.1.15,2013-03-08 02:15:00,
2013-03-07 20:18:00,29.5,25.5,30.29,North,355,0.0,0.0,85,0.00,,,0.00,Wunderground v.1.15,2013-03-08 02:18:00,
2013-03-07 20:19:00,29.4,25.4,30.29,North,355,0.0,0.0,85,0.00,,,0.00,Wunderground v.1.15,2013-03-08 02:19:00,
2013-03-07 20:20:00,29.4,25.4,30.29,North,355,0.0,0.0,85,0.00,,,0.00,Wunderground v.1.15,2013-03-08 02:20:00,
2013-03-07 20:23:00,29.3,25.4,30.29,North,355,0.0,0.0,85,0.00,,,0.00,Wunderground v.1.15,2013-03-08 02:23:00,
2013-03-07 20:25:00,29.3,25.4,30.29,North,355,0.0,0.0,85,0.00,,,0.00,Wunderground v.1.15,2013-03-08 02:25:00,
2013-03-07 20:28:00,29.1,25.2,30.29,North,355,0.0,0.0,85,0.00,,,0.00,Wunderground v.1.15,2013-03-08 02:28:00,
2013-03-07 20:30:00,29.1,25.4,30.29,North,355,0.0,0.0,86,0.00,,,0.00,Wunderground v.1.15,2013-03-08 02:30:00,
2013-03-07 20:33:00,29.1,25.4,30.29,North,355,0.0,0.0,86,0.00,,,0.00,Wunderground v.1.15,2013-03-08 02:33:00,
2013-03-07 20:35:00,29.0,25.3,30.29,North,355,0.0,0.0,86,0.00,,,0.00,Wunderground v.1.15,2013-03-08 02:35:00,
2013-03-07 20:38:00,28.8,25.1,30.29,North,355,0.0,0.0,86,0.00,,,0.00,Wunderground v.1.15,2013-03-08 02:38:00,
2013-03-07 20:40:00,28.8,25.1,30.29,North,355,0.0,0.0,86,0.00,,,0.00,Wunderground v.1.15,2013-03-08 02:40:00,
2013-03-07 20:43:00,28.5,24.8,30.29,North,355,0.0,0.0,86,0.00,,,0.00,Wunderground v.1.15,2013-03-08 02:43:00,
2013-03-07 20:45:00,28.5,24.8,30.29,North,355,0.0,0.0,86,0.00,,,0.00,Wunderground v.1.15,2013-03-08 02:45:00,
2013-03-07 20:46:00,28.5,24.8,30.29,North,355,0.0,0.0,86,0.00,,,0.00,Wunderground v.1.15,2013-03-08 02:46:00,
2013-03-07 20:48:00,28.4,24.7,30.29,North,355,0.0,0.0,86,0.00,,,0.00,Wunderground v.1.15,2013-03-08 02:48:00,
2013-03-07 20:50:00,28.4,25.0,30.29,North,355,0.0,0.0,87,0.00,,,0.00,Wunderground v.1.15,2013-03-08 02:50:00,
2013-03-07 20:51:00,28.4,25.0,30.29,North,355,0.0,0.0,87,0.00,,,0.00,Wunderground v.1.15,2013-03-08 02:51:00,
2013-03-07 20:54:00,28.4,25.0,30.29,North,355,0.0,0.0,87,0.00,,,0.00,Wunderground v.1.15,2013-03-08 02:54:00,
2013-03-07 20:55:00,28.5,25.1,30.29,North,355,0.0,0.0,87,0.00,,,0.00,Wunderground v.1.15,2013-03-08 02:55:00,
2013-03-07 20:56:00,28.5,25.1,30.29,North,355,0.0,0.0,87,0.00,,,0.00,Wunderground v.1.15,2013-03-08 02:56:00,
2013-03-07 20:59:00,28.5,25.1,30.29,North,355,0.0,0.0,87,0.00,,,0.00,Wunderground v.1.15,2013-03-08 02:59:00,
2013-03-07 21:00:00,28.7,25.3,30.29,North,355,0.0,0.0,87,0.00,,,0.00,Wunderground v.1.15,2013-03-08 03:00:00,
2013-03-07 21:02:00,28.7,25.3,30.29,North,355,0.0,0.0,87,0.00,,,0.00,Wunderground v.1.15,2013-03-08 03:02:00,
2013-03-07 21:04:00,28.5,25.1,30.29,North,355,0.0,0.0,87,0.00,,,0.00,Wunderground v.1.15,2013-03-08 03:04:00,
2013-03-07 21:05:00,28.4,25.0,30.29,North,355,0.0,0.0,87,0.00,,,0.00,Wunderground v.1.15,2013-03-08 03:05:00,
2013-03-07 21:07:00,28.4,25.0,30.29,North,355,0.0,0.0,87,0.00,,,0.00,Wunderground v.1.15,2013-03-08 03:07:00,
2013-03-07 21:09:00,28.4,25.0,30.29,North,355,0.0,0.0,87,0.00,,,0.00,Wunderground v.1.15,2013-03-08 03:09:00,
2013-03-07 21:11:00,28.2,24.8,30.29,North,355,0.0,0.0,87,0.00,,,0.00,Wunderground v.1.15,2013-03-08 03:11:00,
2013-03-07 21:12:00,28.2,24.8,30.29,North,355,0.0,0.0,87,0.00,,,0.00,Wunderground v.1.15,2013-03-08 03:12:00,
2013-03-07 21:14:00,28.1,24.7,30.29,North,355,0.0,0.0,87,0.00,,,0.00,Wunderground v.1.15,2013-03-08 03:14:00,
2013-03-07 21:16:00,28.1,24.7,30.29,North,355,0.0,0.0,87,0.00,,,0.00,Wunderground v.1.15,2013-03-08 03:16:00,
2013-03-07 21:17:00,27.9,24.5,30.29,North,355,0.0,0.0,87,0.00,,,0.00,Wunderground v.1.15,2013-03-08 03:17:00,
2013-03-07 21:20:00,28.1,25.0,30.29,North,355,0.0,0.0,88,0.00,,,0.00,Wunderground v.1.15,2013-03-08 03:20:00,
2013-03-07 21:21:00,28.1,25.0,30.29,North,355,0.0,0.0,88,0.00,,,0.00,Wunderground v.1.15,2013-03-08 03:21:00,
2013-03-07 21:23:00,28.2,25.1,30.29,North,355,0.0,0.0,88,0.00,,,0.00,Wunderground v.1.15,2013-03-08 03:23:00,
2013-03-07 21:25:00,28.2,25.1,30.29,North,355,0.0,0.0,88,0.00,,,0.00,Wunderground v.1.15,2013-03-08 03:25:00,
2013-03-07 21:26:00,28.2,25.1,30.29,North,355,0.0,0.0,88,0.00,,,0.00,Wunderground v.1.15,2013-03-08 03:26:00,
2013-03-07 21:28:00,28.1,25.0,30.29,North,355,0.0,0.0,88,0.00,,,0.00,Wunderground v.1.15,2013-03-08 03:28:00,
2013-03-07 21:30:00,28.1,25.0,30.29,North,355,0.0,0.0,88,0.00,,,0.00,Wunderground v.1.15,2013-03-08 03:30:00,
2013-03-07 21:31:00,28.1,25.0,30.29,North,355,0.0,0.0,88,0.00,,,0.00,Wunderground v.1.15,2013-03-08 03:31:00,
2013-03-07 21:33:00,28.1,25.0,30.29,North,355,0.0,0.0,88,0.00,,,0.00,Wunderground v.1.15,2013-03-08 03:33:00,
2013-03-07 21:35:00,28.1,25.0,30.29,North,355,0.0,0.0,88,0.00,,,0.00,Wunderground v.1.15,2013-03-08 03:35:00,
2013-03-07 21:37:00,28.1,25.0,30.29,North,355,0.0,0.0,88,0.00,,,0.00,Wunderground v.1.15,2013-03-08 03:37:00,
2013-03-07 21:38:00,27.9,24.8,30.29,North,355,0.0,0.0,88,0.00,,,0.00,Wunderground v.1.15,2013-03-08 03:38:00,
2013-03-07 21:41:00,27.9,24.8,30.29,North,355,0.0,0.0,88,0.00,,,0.00,Wunderground v.1.15,2013-03-08 03:41:00,
2013-03-07 21:42:00,27.9,24.8,30.29,North,355,0.0,0.0,88,0.00,,,0.00,Wunderground v.1.15,2013-03-08 03:42:00,
2013-03-07 21:43:00,27.8,24.7,30.29,North,355,0.0,0.0,88,0.00,,,0.00,Wunderground v.1.15,2013-03-08 03:43:00,
2013-03-07 21:45:00,27.8,24.7,30.29,North,355,0.0,0.0,88,0.00,,,0.00,Wunderground v.1.15,2013-03-08 03:45:00,
2013-03-07 21:47:00,27.9,24.8,30.29,North,355,0.0,0.0,88,0.00,,,0.00,Wunderground v.1.15,2013-03-08 03:47:00,
2013-03-07 21:48:00,27.9,25.1,30.29,North,355,0.0,0.0,89,0.00,,,0.00,Wunderground v.1.15,2013-03-08 03:48:00,
2013-03-07 21:51:00,27.9,25.1,30.29,North,355,0.0,0.0,89,0.00,,,0.00,Wunderground v.1.15,2013-03-08 03:51:00,
2013-03-07 21:52:00,28.1,25.3,30.29,North,355,0.0,0.0,89,0.00,,,0.00,Wunderground v.1.15,2013-03-08 03:52:00,
2013-03-07 21:54:00,28.1,25.3,30.29,North,355,0.0,0.0,89,0.00,,,0.00,Wunderground v.1.15,2013-03-08 03:54:00,
2013-03-07 21:56:00,28.1,25.3,30.29,North,355,0.0,0.0,89,0.00,,,0.00,Wunderground v.1.15,2013-03-08 03:56:00,
2013-03-07 21:57:00,28.1,25.3,30.29,North,355,0.0,0.0,89,0.00,,,0.00,Wunderground v.1.15,2013-03-08 03:57:00,
2013-03-07 21:59:00,27.9,25.1,30.29,North,355,0.0,0.0,89,0.00,,,0.00,Wunderground v.1.15,2013-03-08 03:59:00,
2013-03-07 22:00:00,27.6,24.8,30.30,North,-999,0.0,0.0,89,0.00,,,-99.99,WeatherLink 5.6,2013-03-08 04:00:00,
2013-03-07 22:01:00,27.9,25.1,30.29,North,355,0.0,0.0,89,0.00,,,0.00,Wunderground v.1.15,2013-03-08 04:01:00,
2013-03-07 22:02:00,27.8,25.0,30.29,North,355,0.0,0.0,89,0.00,,,0.00,Wunderground v.1.15,2013-03-08 04:02:00,
2013-03-07 22:04:00,27.6,24.8,30.29,North,355,0.0,0.0,89,0.00,,,0.00,Wunderground v.1.15,2013-03-08 04:04:00,
2013-03-07 22:06:00,27.6,24.8,30.29,North,355,0.0,0.0,89,0.00,,,0.00,Wunderground v.1.15,2013-03-08 04:06:00,
2013-03-07 22:08:00,27.6,24.8,30.30,North,355,0.0,0.0,89,0.00,,,0.00,Wunderground v.1.15,2013-03-08 04:08:00,
2013-03-07 22:09:00,27.6,24.8,30.30,North,355,0.0,0.0,89,0.00,,,0.00,Wunderground v.1.15,2013-03-08 04:09:00,
2013-03-07 22:11:00,27.6,24.8,30.30,North,355,0.0,0.0,89,0.00,,,0.00,Wunderground v.1.15,2013-03-08 04:11:00,
2013-03-07 22:13:00,27.6,24.8,30.30,North,355,0.0,0.0,89,0.00,,,0.00,Wunderground v.1.15,2013-03-08 04:13:00,
2013-03-07 22:14:00,27.6,24.8,30.30,North,355,0.0,0.0,89,0.00,,,0.00,Wunderground v.1.15,2013-03-08 04:14:00,
2013-03-07 22:16:00,27.6,24.8,30.30,North,355,0.0,0.0,89,0.00,,,0.00,Wunderground v.1.15,2013-03-08 04:16:00,
2013-03-07 22:18:00,27.5,24.7,30.30,North,355,0.0,0.0,89,0.00,,,0.00,Wunderground v.1.15,2013-03-08 04:18:00,
2013-03-07 22:19:00,27.5,24.7,30.30,North,355,0.0,0.0,89,0.00,,,0.00,Wunderground v.1.15,2013-03-08 04:19:00,
2013-03-07 22:21:00,27.3,24.5,30.30,North,355,0.0,0.0,89,0.00,,,0.00,Wunderground v.1.15,2013-03-08 04:21:00,
2013-03-07 22:23:00,27.3,24.5,30.30,North,355,0.0,0.0,89,0.00,,,0.00,Wunderground v.1.15,2013-03-08 04:23:00,
2013-03-07 22:24:00,27.3,24.5,30.30,North,355,0.0,0.0,89,0.00,,,0.00,Wunderground v.1.15,2013-03-08 04:24:00,
2013-03-07 22:27:00,27.3,24.5,30.30,North,355,0.0,0.0,89,0.00,,,0.00,Wunderground v.1.15,2013-03-08 04:27:00,
2013-03-07 22:28:00,27.3,24.5,30.30,North,355,0.0,0.0,89,0.00,,,0.00,Wunderground v.1.15,2013-03-08 04:28:00,
2013-03-07 22:30:00,27.5,24.7,30.30,North,355,0.0,0.0,89,0.00,,,0.00,Wunderground v.1.15,2013-03-08 04:30:00,
2013-03-07 22:32:00,27.3,24.5,30.30,North,355,0.0,0.0,89,0.00,,,0.00,Wunderground v.1.15,2013-03-08 04:32:00,
2013-03-07 22:34:00,27.3,24.5,30.30,North,355,0.0,0.0,89,0.00,,,0.00,Wunderground v.1.15,2013-03-08 04:34:00,
2013-03-07 22:36:00,27.3,24.5,30.30,North,355,0.0,0.0,89,0.00,,,0.00,Wunderground v.1.15,2013-03-08 04:36:00,
2013-03-07 22:37:00,27.3,24.5,30.30,North,355,0.0,0.0,89,0.00,,,0.00,Wunderground v.1.15,2013-03-08 04:37:00,
2013-03-07 22:39:00,27.2,24.4,30.30,North,355,0.0,0.0,89,0.00,,,0.00,Wunderground v.1.15,2013-03-08 04:39:00,
2013-03-07 22:41:00,27.3,24.5,30.30,North,355,0.0,0.0,89,0.00,,,0.00,Wunderground v.1.15,2013-03-08 04:41:00,
2013-03-07 22:42:00,27.3,24.5,30.30,North,355,0.0,0.0,89,0.00,,,0.00,Wunderground v.1.15,2013-03-08 04:42:00,
2013-03-07 22:44:00,27.3,24.5,30.30,North,355,0.0,0.0,89,0.00,,,0.00,Wunderground v.1.15,2013-03-08 04:44:00,
2013-03-07 22:46:00,27.3,24.5,30.30,North,355,0.0,0.0,89,0.00,,,0.00,Wunderground v.1.15,2013-03-08 04:46:00,
2013-03-07 22:47:00,27.2,24.4,30.30,North,355,0.0,0.0,89,0.00,,,0.00,Wunderground v.1.15,2013-03-08 04:47:00,
2013-03-07 22:49:00,27.0,24.2,30.30,North,355,0.0,0.0,89,0.00,,,0.00,Wunderground v.1.15,2013-03-08 04:49:00,
2013-03-07 22:51:00,26.9,24.1,30.30,North,355,0.0,0.0,89,0.00,,,0.00,Wunderground v.1.15,2013-03-08 04:51:00,
2013-03-07 22:52:00,26.9,24.1,30.30,North,355,0.0,0.0,89,0.00,,,0.00,Wunderground v.1.15,2013-03-08 04:52:00,
2013-03-07 22:54:00,26.9,24.1,30.30,North,355,0.0,0.0,89,0.00,,,0.00,Wunderground v.1.15,2013-03-08 04:54:00,
2013-03-07 22:56:00,26.9,24.1,30.30,North,355,0.0,0.0,89,0.00,,,0.00,Wunderground v.1.15,2013-03-08 04:56:00,
2013-03-07 22:58:00,26.9,24.1,30.30,North,355,0.0,0.0,89,0.00,,,0.00,Wunderground v.1.15,2013-03-08 04:58:00,
2013-03-07 22:59:00,26.9,24.1,30.30,North,355,0.0,0.0,89,0.00,,,0.00,Wunderground v.1.15,2013-03-08 04:59:00,
2013-03-07 23:00:00,26.9,24.1,30.30,North,355,0.0,0.0,89,0.00,,,0.00,Wunderground v.1.15,2013-03-08 05:00:00,
2013-03-07 23:01:00,27.0,24.5,30.30,North,355,0.0,0.0,90,0.00,,,0.00,Wunderground v.1.15,2013-03-08 05:01:00,
2013-03-07 23:02:00,27.0,24.5,30.30,North,355,0.0,0.0,90,0.00,,,0.00,Wunderground v.1.15,2013-03-08 05:02:00,
2013-03-07 23:05:00,27.2,24.7,30.30,North,355,0.0,0.0,90,0.00,,,0.00,Wunderground v.1.15,2013-03-08 05:05:00,
2013-03-07 23:06:00,27.0,24.5,30.30,North,355,0.0,0.0,90,0.00,,,0.00,Wunderground v.1.15,2013-03-08 05:06:00,
2013-03-07 23:07:00,27.0,24.2,30.30,North,355,0.0,0.0,89,0.00,,,0.00,Wunderground v.1.15,2013-03-08 05:07:00,
2013-03-07 23:10:00,27.0,24.2,30.30,North,355,0.0,0.0,89,0.00,,,0.00,Wunderground v.1.15,2013-03-08 05:10:00,
2013-03-07 23:12:00,26.9,24.1,30.30,North,355,0.0,0.0,89,0.00,,,0.00,Wunderground v.1.15,2013-03-08 05:12:00,
2013-03-07 23:15:00,26.9,24.1,30.30,North,355,0.0,0.0,89,0.00,,,0.00,Wunderground v.1.15,2013-03-08 05:15:00,
2013-03-07 23:16:00,26.9,24.1,30.30,North,355,0.0,0.0,89,0.00,,,0.00,Wunderground v.1.15,2013-03-08 05:16:00,
2013-03-07 23:17:00,26.9,24.1,30.30,North,355,0.0,0.0,89,0.00,,,0.00,Wunderground v.1.15,2013-03-08 05:17:00,
2013-03-07 23:20:00,26.9,24.4,30.30,North,355,0.0,0.0,90,0.00,,,0.00,Wunderground v.1.15,2013-03-08 05:20:00,
2013-03-07 23:21:00,26.9,24.4,30.30,North,355,0.0,0.0,90,0.00,,,0.00,Wunderground v.1.15,2013-03-08 05:21:00,
2013-03-07 23:22:00,26.7,23.9,30.29,North,355,0.0,0.0,89,0.00,,,0.00,Wunderground v.1.15,2013-03-08 05:22:00,
2013-03-07 23:23:00,26.7,23.9,30.29,North,355,0.0,0.0,89,0.00,,,0.00,Wunderground v.1.15,2013-03-08 05:23:00,
2013-03-07 23:26:00,26.6,23.8,30.29,North,355,0.0,0.0,89,0.00,,,0.00,Wunderground v.1.15,2013-03-08 05:26:00,
2013-03-07 23:28:00,26.4,23.6,30.29,North,355,0.0,0.0,89,0.00,,,0.00,Wunderground v.1.15,2013-03-08 05:28:00,
2013-03-07 23:31:00,26.4,23.9,30.29,North,355,0.0,0.0,90,0.00,,,0.00,Wunderground v.1.15,2013-03-08 05:31:00,
2013-03-07 23:33:00,26.4,23.9,30.29,North,355,0.0,0.0,90,0.00,,,0.00,Wunderground v.1.15,2013-03-08 05:33:00,
2013-03-07 23:36:00,26.3,23.8,30.29,North,355,0.0,0.0,90,0.00,,,0.00,Wunderground v.1.15,2013-03-08 05:36:00,
2013-03-07 23:37:00,26.4,23.9,30.29,North,355,0.0,0.0,90,0.00,,,0.00,Wunderground v.1.15,2013-03-08 05:37:00,
2013-03-07 23:38:00,26.4,23.9,30.29,North,355,0.0,0.0,90,0.00,,,0.00,Wunderground v.1.15,2013-03-08 05:38:00,
2013-03-07 23:42:00,26.3,23.8,30.29,North,355,0.0,0.0,90,0.00,,,0.00,Wunderground v.1.15,2013-03-08 05:42:00,
2013-03-07 23:43:00,26.3,23.8,30.29,North,355,0.0,0.0,90,0.00,,,0.00,Wunderground v.1.15,2013-03-08 05:43:00,
2013-03-07 23:44:00,26.3,23.8,30.29,North,355,0.0,0.0,90,0.00,,,0.00,Wunderground v.1.15,2013-03-08 05:44:00,
2013-03-07 23:47:00,26.1,23.6,30.29,North,355,0.0,0.0,90,0.00,,,0.00,Wunderground v.1.15,2013-03-08 05:47:00,
2013-03-07 23:49:00,26.1,23.6,30.29,North,355,0.0,0.0,90,0.00,,,0.00,Wunderground v.1.15,2013-03-08 05:49:00,
2013-03-07 23:52:00,26.0,23.5,30.29,North,355,0.0,0.0,90,0.00,,,0.00,Wunderground v.1.15,2013-03-08 05:52:00,
2013-03-07 23:53:00,26.0,23.5,30.29,North,355,0.0,0.0,90,0.00,,,0.00,Wunderground v.1.15,2013-03-08 05:53:00,
2013-03-07 23:54:00,26.0,23.5,30.29,North,355,0.0,0.0,90,0.00,,,0.00,Wunderground v.1.15,2013-03-08 05:54:00,
2013-03-07 23:55:00,26.0,23.5,30.29,North,355,0.0,0.0,90,0.00,,,0.00,Wunderground v.1.15,2013-03-08 05:55:00,
2013-03-07 23:57:00,26.1,23.6,30.29,North,355,0.0,0.0,90,0.00,,,0.00,Wunderground v.1.15,2013-03-08 05:57:00,
2013-03-07 23:58:00,26.1,23.6,30.29,North,355,0.0,0.0,90,0.00,,,0.00,Wunderground v.1.15,2013-03-08 05:58:00,